PTI737 YMML-VOCI

Flight info

Callsign PTI737
Flight time 10h 47m
Altitude 34000
Route PEDNI H345 AD A585 PD R206 XMX L897 KAT R461 MDI MDI1D
Aircraft B737/M-SDE2E3FGHIRWXY/LB1

Departure

Time 2026-05-05 10:11
Airport Melbourne Airport (YMML)

Arrival

Time 2026-05-05 20:58
Airport Cochin International Airport (VOCI)
Time Latitude Longitude Altitude Speed Heading
2026-05-05 09:48 -37.66575 144.84661 402 ft 0 kts 347°
2026-05-05 10:05 -37.66583 144.84663 400 ft 4 kts 348°
2026-05-05 10:05 -37.66610 144.84668 399 ft 4 kts 358°
2026-05-05 10:05 -37.66636 144.84665 400 ft 4 kts 28°
2026-05-05 10:06 -37.66648 144.84649 395 ft 1 kts 81°
2026-05-05 10:08 -37.66646 144.84668 398 ft 10 kts 81°
2026-05-05 10:09 -37.66629 144.84766 401 ft 12 kts 63°
2026-05-05 10:09 -37.66545 144.84797 404 ft 18 kts 349°
2026-05-05 10:09 -37.66412 144.84779 409 ft 21 kts
2026-05-05 10:09 -37.66320 144.84789 411 ft 11 kts
2026-05-05 10:10 -37.66226 144.84777 410 ft 10 kts 297°
2026-05-05 10:10 -37.66208 144.84457 410 ft 75 kts 274°
2026-05-05 10:10 -37.66152 144.83495 409 ft 142 kts 275°
2026-05-05 10:10 -37.66067 144.82167 995 ft 144 kts 274°
2026-05-05 10:11 -37.66008 144.80815 1494 ft 172 kts 275°
2026-05-05 10:11 -37.65909 144.79251 2208 ft 183 kts 274°
2026-05-05 10:11 -37.65800 144.77510 2528 ft 212 kts 274°
2026-05-05 10:11 -37.65683 144.75571 2884 ft 228 kts 274°
2026-05-05 10:12 -37.65563 144.73536 3402 ft 240 kts 274°
2026-05-05 10:12 -37.65436 144.71345 3759 ft 258 kts 274°
2026-05-05 10:12 -37.65303 144.69064 4564 ft 261 kts 273°
2026-05-05 10:12 -37.65171 144.66786 5497 ft 261 kts 272°
2026-05-05 10:13 -37.64862 144.64514 6264 ft 267 kts 288°
2026-05-05 10:13 -37.64179 144.62314 7058 ft 271 kts 291°
2026-05-05 10:13 -37.63449 144.60109 7823 ft 273 kts 291°
2026-05-05 10:13 -37.62710 144.57893 8586 ft 275 kts 290°
2026-05-05 10:14 -37.61969 144.55656 9351 ft 278 kts 290°
2026-05-05 10:14 -37.61226 144.53396 10112 ft 280 kts 290°
2026-05-05 10:14 -37.60475 144.51099 10680 ft 290 kts 290°
2026-05-05 10:14 -37.59680 144.48652 10922 ft 310 kts 290°
2026-05-05 10:15 -37.58854 144.46105 11496 ft 317 kts 290°
2026-05-05 10:15 -37.58016 144.43521 12216 ft 320 kts 290°
2026-05-05 10:15 -37.57172 144.40919 12947 ft 322 kts 290°
2026-05-05 10:15 -37.56318 144.38286 13659 ft 326 kts 290°
2026-05-05 10:16 -37.55455 144.35623 14321 ft 330 kts 290°
2026-05-05 10:16 -37.54584 144.32937 14944 ft 333 kts 290°
2026-05-05 10:16 -37.53703 144.30223 15568 ft 337 kts 290°
2026-05-05 10:16 -37.52813 144.27478 16193 ft 340 kts 290°
2026-05-05 10:17 -37.51914 144.24713 16813 ft 343 kts 291°
2026-05-05 10:17 -37.51005 144.21915 17412 ft 347 kts 291°
2026-05-05 10:17 -37.50083 144.19083 18016 ft 351 kts 291°
2026-05-05 10:17 -37.49153 144.16227 18624 ft 354 kts 291°
2026-05-05 10:18 -37.48213 144.13343 19152 ft 358 kts 291°
2026-05-05 10:18 -37.47264 144.10438 19711 ft 360 kts 291°
2026-05-05 10:18 -37.46308 144.07512 20285 ft 362 kts 291°
2026-05-05 10:18 -37.45346 144.04569 20826 ft 365 kts 291°
2026-05-05 10:19 -37.44374 144.01599 21353 ft 369 kts 291°
2026-05-05 10:19 -37.43391 143.98600 21876 ft 372 kts 291°
2026-05-05 10:19 -37.42399 143.95575 22405 ft 375 kts 291°
2026-05-05 10:19 -37.41399 143.92529 22921 ft 379 kts 291°
2026-05-05 10:20 -37.40390 143.89457 23437 ft 382 kts 291°
2026-05-05 10:20 -37.39369 143.86355 23925 ft 385 kts 291°
2026-05-05 10:20 -37.38341 143.83236 24358 ft 388 kts 291°
2026-05-05 10:20 -37.37307 143.80100 24827 ft 389 kts 291°
2026-05-05 10:21 -37.36269 143.76954 25290 ft 390 kts 291°
2026-05-05 10:21 -37.35226 143.73797 25719 ft 392 kts 291°
2026-05-05 10:21 -37.34176 143.70623 26138 ft 395 kts 291°
2026-05-05 10:21 -37.33118 143.67428 26560 ft 397 kts 291°
2026-05-05 10:22 -37.32054 143.64219 26986 ft 399 kts 291°
2026-05-05 10:22 -37.30985 143.60999 27412 ft 400 kts 291°
2026-05-05 10:22 -37.29912 143.57770 27863 ft 401 kts 291°
2026-05-05 10:22 -37.28835 143.54532 28288 ft 403 kts 291°
2026-05-05 10:23 -37.27753 143.51281 28665 ft 405 kts 291°
2026-05-05 10:23 -37.26663 143.48010 29019 ft 407 kts 292°
2026-05-05 10:23 -37.25565 143.44721 29358 ft 410 kts 292°
2026-05-05 10:23 -37.24462 143.41418 29715 ft 412 kts 292°
2026-05-05 10:24 -37.23352 143.38100 30066 ft 413 kts 292°
2026-05-05 10:24 -37.22237 143.34767 30392 ft 415 kts 292°
2026-05-05 10:24 -37.21118 143.31427 30673 ft 416 kts 292°
2026-05-05 10:24 -37.19994 143.28077 30962 ft 417 kts 292°
2026-05-05 10:25 -37.18888 143.24707 31248 ft 418 kts 290°
2026-05-05 10:25 -37.17837 143.21309 31511 ft 419 kts 290°
2026-05-05 10:25 -37.16804 143.17889 31768 ft 420 kts 290°
2026-05-05 10:25 -37.15776 143.14461 32019 ft 421 kts 290°
2026-05-05 10:26 -37.14741 143.11024 32267 ft 422 kts 290°
2026-05-05 10:26 -37.13701 143.07585 32510 ft 423 kts 290°
2026-05-05 10:26 -37.12652 143.04140 32734 ft 424 kts 290°
2026-05-05 10:26 -37.11597 143.00687 32948 ft 425 kts 290°
2026-05-05 10:27 -37.10538 142.97233 33173 ft 425 kts 290°
2026-05-05 10:27 -37.09477 142.93779 33398 ft 425 kts 290°
2026-05-05 10:27 -37.08412 142.90318 33599 ft 426 kts 290°
2026-05-05 10:27 -37.07344 142.86852 33792 ft 427 kts 290°
2026-05-05 10:28 -37.06635 142.84554 33914 ft 428 kts 290°
2026-05-05 10:28 -37.05563 142.81085 34151 ft 427 kts 290°
2026-05-05 10:28 -37.04492 142.77618 34269 ft 429 kts 290°
2026-05-05 10:28 -37.03410 142.74123 34272 ft 432 kts 290°
2026-05-05 10:29 -37.01222 142.67067 34274 ft 437 kts 290°
2026-05-05 10:29 -36.99013 142.59961 34262 ft 439 kts 290°
2026-05-05 10:30 -36.96795 142.52845 34268 ft 439 kts 290°
2026-05-05 10:30 -36.94574 142.45736 34265 ft 438 kts 290°
2026-05-05 10:31 -36.92357 142.38658 34262 ft 437 kts 290°
2026-05-05 10:31 -36.90143 142.31606 34262 ft 435 kts 290°
2026-05-05 10:32 -36.87931 142.24579 34264 ft 434 kts 290°
2026-05-05 10:32 -36.85723 142.17581 34264 ft 432 kts 290°
2026-05-05 10:33 -36.83518 142.10608 34267 ft 432 kts 290°
2026-05-05 10:33 -36.81311 142.03648 34264 ft 431 kts 290°
2026-05-05 10:34 -36.79103 141.96699 34266 ft 431 kts 290°
2026-05-05 10:34 -36.76892 141.89760 34267 ft 430 kts 290°
2026-05-05 10:35 -36.74680 141.82831 34266 ft 430 kts 290°
2026-05-05 10:35 -36.72462 141.75904 34267 ft 430 kts 290°
2026-05-05 10:36 -36.70243 141.68986 34267 ft 430 kts 290°
2026-05-05 10:36 -36.68017 141.62066 34264 ft 430 kts 290°
2026-05-05 10:37 -36.65788 141.55152 34272 ft 430 kts 290°
2026-05-05 10:37 -36.63554 141.48237 34271 ft 430 kts 290°
2026-05-05 10:38 -36.61315 141.41327 34272 ft 430 kts 290°
2026-05-05 10:38 -36.59071 141.34415 34274 ft 431 kts 290°
2026-05-05 10:39 -36.56824 141.27510 34269 ft 431 kts 291°
2026-05-05 10:39 -36.54569 141.20598 34269 ft 431 kts 291°
2026-05-05 10:40 -36.52309 141.13685 34279 ft 432 kts 291°
2026-05-05 10:40 -36.50044 141.06773 34265 ft 432 kts 291°
2026-05-05 10:41 -36.47774 140.99862 34272 ft 432 kts 291°
2026-05-05 10:41 -36.45499 140.92954 34273 ft 432 kts 291°
2026-05-05 10:42 -36.42078 140.82587 34268 ft 432 kts 291°
2026-05-05 10:43 -36.39758 140.75701 34274 ft 433 kts 295°
2026-05-05 10:43 -36.36424 140.69472 34286 ft 435 kts 307°
2026-05-05 10:44 -36.32642 140.63604 34279 ft 436 kts 307°
2026-05-05 10:44 -36.28874 140.57719 34276 ft 436 kts 306°
2026-05-05 10:45 -36.25146 140.51855 34275 ft 436 kts 306°
2026-05-05 10:45 -36.21396 140.45951 34276 ft 436 kts 306°
2026-05-05 10:46 -36.17642 140.40050 34276 ft 436 kts 307°
2026-05-05 10:46 -36.13884 140.34156 34279 ft 436 kts 307°
2026-05-05 10:47 -36.10125 140.28268 34276 ft 436 kts 307°
2026-05-05 10:47 -36.06359 140.22387 34276 ft 436 kts 307°
2026-05-05 10:48 -36.02588 140.16519 34271 ft 436 kts 307°
2026-05-05 10:48 -35.98813 140.10653 34271 ft 436 kts 307°
2026-05-05 10:49 -35.95040 140.04799 34278 ft 436 kts 307°
2026-05-05 10:49 -35.91265 139.98950 34277 ft 436 kts 307°
2026-05-05 10:50 -35.87487 139.93105 34283 ft 435 kts 307°
2026-05-05 10:50 -35.83711 139.87274 34278 ft 435 kts 307°
2026-05-05 10:51 -35.79934 139.81452 34280 ft 435 kts 307°
2026-05-05 10:51 -35.76156 139.75637 34280 ft 435 kts 307°
2026-05-05 10:52 -35.72377 139.69831 34280 ft 434 kts 307°
2026-05-05 10:52 -35.68601 139.64039 34275 ft 434 kts 307°
2026-05-05 10:53 -35.64849 139.58293 34278 ft 434 kts 307°
2026-05-05 10:53 -35.61071 139.52517 34280 ft 433 kts 307°
2026-05-05 10:54 -35.57293 139.46751 34282 ft 433 kts 307°
2026-05-05 10:54 -35.53517 139.40996 34279 ft 432 kts 307°
2026-05-05 10:55 -35.49742 139.35254 34280 ft 432 kts 307°
2026-05-05 10:55 -35.45969 139.29520 34281 ft 432 kts 307°
2026-05-05 10:56 -35.42195 139.23798 34282 ft 431 kts 307°
2026-05-05 10:56 -35.38419 139.18083 34284 ft 431 kts 307°
2026-05-05 10:57 -35.34641 139.12369 34282 ft 432 kts 307°
2026-05-05 10:57 -35.30858 139.06657 34286 ft 432 kts 307°
2026-05-05 10:58 -35.27076 139.00952 34285 ft 432 kts 307°
2026-05-05 10:58 -35.23291 138.95255 34299 ft 431 kts 307°
2026-05-05 10:59 -35.19502 138.89560 34288 ft 432 kts 308°
2026-05-05 10:59 -35.15713 138.83874 34291 ft 432 kts 308°
2026-05-05 11:00 -35.11921 138.78191 34296 ft 431 kts 308°
2026-05-05 11:00 -35.08126 138.72515 34289 ft 431 kts 308°
2026-05-05 11:01 -35.04327 138.66842 34294 ft 431 kts 308°
2026-05-05 11:01 -35.00532 138.61181 34296 ft 431 kts 308°
2026-05-05 11:02 -34.96730 138.55520 34280 ft 431 kts 308°
2026-05-05 11:02 -34.93091 138.49728 34296 ft 430 kts 303°
2026-05-05 11:03 -34.89778 138.43682 34292 ft 430 kts 302°
2026-05-05 11:03 -34.86477 138.37618 34293 ft 429 kts 303°
2026-05-05 11:04 -34.83153 138.31574 34287 ft 429 kts 303°
2026-05-05 11:04 -34.79819 138.25547 34285 ft 429 kts 303°
2026-05-05 11:05 -34.76479 138.19523 34280 ft 429 kts 303°
2026-05-05 11:05 -34.73138 138.13509 34284 ft 429 kts 303°
2026-05-05 11:06 -34.69791 138.07493 34292 ft 429 kts 303°
2026-05-05 11:06 -34.66445 138.01487 34295 ft 429 kts 303°
2026-05-05 11:07 -34.63114 137.95519 34286 ft 430 kts 303°
2026-05-05 11:07 -34.59737 137.89477 34295 ft 430 kts 303°
2026-05-05 11:08 -34.56401 137.83521 34292 ft 430 kts 303°
2026-05-05 11:08 -34.53034 137.77525 34288 ft 430 kts 303°
2026-05-05 11:09 -34.49666 137.71533 34290 ft 430 kts 303°
2026-05-05 11:09 -34.46290 137.65536 34298 ft 431 kts 304°
2026-05-05 11:10 -34.42908 137.59538 34293 ft 431 kts 304°
2026-05-05 11:10 -34.39522 137.53541 34297 ft 432 kts 304°
2026-05-05 11:11 -34.36127 137.47540 34291 ft 432 kts 304°
2026-05-05 11:11 -34.32730 137.41546 34292 ft 432 kts 304°
2026-05-05 11:12 -34.29327 137.35550 34284 ft 433 kts 304°
2026-05-05 11:12 -34.25913 137.29545 34292 ft 433 kts 304°
2026-05-05 11:13 -34.22496 137.23543 34287 ft 434 kts 304°
2026-05-05 11:13 -34.19648 137.18550 34291 ft 434 kts 304°
2026-05-05 11:14 -34.16219 137.12545 34289 ft 434 kts 304°
2026-05-05 11:14 -34.12785 137.06540 34296 ft 435 kts 304°
2026-05-05 11:15 -34.09346 137.00540 34293 ft 435 kts 304°
2026-05-05 11:15 -34.05902 136.94540 34289 ft 435 kts 304°
2026-05-05 11:16 -34.02452 136.88535 34298 ft 436 kts 304°
2026-05-05 11:16 -33.98997 136.82531 34296 ft 436 kts 304°
2026-05-05 11:17 -33.95533 136.76521 34295 ft 437 kts 304°
2026-05-05 11:17 -33.92062 136.70509 34298 ft 438 kts 304°
2026-05-05 11:18 -33.88584 136.64493 34299 ft 438 kts 304°
2026-05-05 11:18 -33.85095 136.58470 34300 ft 439 kts 304°
2026-05-05 11:19 -33.81602 136.52450 34295 ft 439 kts 303°
2026-05-05 11:19 -33.78098 136.46419 34304 ft 440 kts 303°
2026-05-05 11:20 -33.74590 136.40392 34309 ft 440 kts 303°
2026-05-05 11:20 -33.71074 136.34361 34303 ft 441 kts 303°
2026-05-05 11:21 -33.67547 136.28322 34313 ft 442 kts 303°
2026-05-05 11:21 -33.64012 136.22278 34310 ft 443 kts 303°
2026-05-05 11:22 -33.60470 136.16234 34307 ft 443 kts 303°
2026-05-05 11:22 -33.56923 136.10190 34311 ft 443 kts 303°
2026-05-05 11:23 -33.53370 136.04144 34309 ft 444 kts 303°
2026-05-05 11:23 -33.49813 135.98104 34313 ft 444 kts 303°
2026-05-05 11:24 -33.46276 135.92103 34310 ft 444 kts 303°
2026-05-05 11:24 -33.42711 135.86066 34306 ft 444 kts 303°
2026-05-05 11:25 -33.39148 135.80021 34318 ft 444 kts 303°
2026-05-05 11:25 -33.35583 135.73972 34309 ft 445 kts 303°
2026-05-05 11:26 -33.32014 135.67925 34316 ft 445 kts 303°
2026-05-05 11:26 -33.28440 135.61881 34316 ft 445 kts 303°
2026-05-05 11:27 -33.24861 135.55839 34308 ft 445 kts 303°
2026-05-05 11:27 -33.21278 135.49801 34319 ft 445 kts 303°
2026-05-05 11:28 -33.17697 135.43776 34318 ft 446 kts 303°
2026-05-05 11:28 -33.14108 135.37746 34315 ft 446 kts 303°
2026-05-05 11:29 -33.10513 135.31717 34320 ft 446 kts 303°
2026-05-05 11:29 -33.06916 135.25693 34321 ft 446 kts 303°
2026-05-05 11:30 -33.03317 135.19675 34321 ft 446 kts 303°
2026-05-05 11:30 -32.99715 135.13662 34325 ft 446 kts 303°
2026-05-05 11:31 -32.96093 135.07668 34327 ft 446 kts 304°
2026-05-05 11:31 -32.92453 135.01688 34323 ft 446 kts 304°
2026-05-05 11:32 -32.88814 134.95714 34321 ft 446 kts 304°
2026-05-05 11:32 -32.85178 134.89749 34313 ft 446 kts 304°
2026-05-05 11:33 -32.81563 134.83824 34331 ft 446 kts 304°
2026-05-05 11:33 -32.77918 134.77859 34324 ft 446 kts 304°
2026-05-05 11:34 -32.74268 134.71896 34326 ft 446 kts 304°
2026-05-05 11:34 -32.70588 134.65894 34330 ft 447 kts 304°
2026-05-05 11:35 -32.66925 134.59928 34336 ft 447 kts 304°
2026-05-05 11:35 -32.63259 134.53967 34317 ft 448 kts 304°
2026-05-05 11:36 -32.59608 134.48041 34328 ft 448 kts 304°
2026-05-05 11:36 -32.55931 134.42082 34332 ft 448 kts 304°
2026-05-05 11:37 -32.52251 134.36126 34323 ft 448 kts 304°
2026-05-05 11:37 -32.48569 134.30177 34331 ft 448 kts 304°
2026-05-05 11:38 -32.44881 134.24228 34328 ft 448 kts 304°
2026-05-05 11:38 -32.41191 134.18285 34322 ft 448 kts 304°
2026-05-05 11:39 -32.37497 134.12345 34332 ft 448 kts 304°
2026-05-05 11:39 -32.33800 134.06409 34332 ft 448 kts 304°
2026-05-05 11:40 -32.30099 134.00477 34328 ft 448 kts 304°
2026-05-05 11:40 -32.26394 133.94545 34329 ft 449 kts 304°
2026-05-05 11:41 -32.22686 133.88620 34333 ft 449 kts 304°
2026-05-05 11:41 -32.18973 133.82694 34322 ft 449 kts 304°
2026-05-05 11:42 -32.15256 133.76770 34335 ft 449 kts 304°
2026-05-05 11:42 -32.11531 133.70858 34330 ft 449 kts 305°
2026-05-05 11:43 -32.07745 133.64991 34324 ft 450 kts 305°
2026-05-05 11:43 -32.03941 133.59137 34337 ft 450 kts 305°
2026-05-05 11:44 -32.00164 133.53321 34334 ft 450 kts 305°
2026-05-05 11:44 -31.96365 133.47468 34335 ft 450 kts 305°
2026-05-05 11:45 -31.92564 133.41618 34338 ft 450 kts 305°
2026-05-05 11:45 -31.88761 133.35772 34339 ft 450 kts 305°
2026-05-05 11:46 -31.84957 133.29935 34340 ft 449 kts 305°
2026-05-05 11:46 -31.81151 133.24103 34339 ft 449 kts 305°
2026-05-05 11:47 -31.77342 133.18276 34343 ft 449 kts 305°
2026-05-05 11:47 -31.73533 133.12458 34342 ft 449 kts 305°
2026-05-05 11:48 -31.67812 133.03736 34341 ft 449 kts 306°
2026-05-05 11:48 -31.63996 132.97928 34342 ft 449 kts 306°
2026-05-05 11:49 -31.60177 132.92124 34347 ft 449 kts 306°
2026-05-05 11:49 -31.56355 132.86326 34342 ft 449 kts 306°
2026-05-05 11:50 -31.52530 132.80532 34344 ft 449 kts 306°
2026-05-05 11:50 -31.48700 132.74739 34343 ft 449 kts 306°
2026-05-05 11:51 -31.44872 132.68956 34347 ft 449 kts 306°
2026-05-05 11:51 -31.41047 132.63189 34342 ft 448 kts 306°
2026-05-05 11:52 -31.37226 132.57435 34342 ft 448 kts 306°
2026-05-05 11:52 -31.33403 132.51687 34344 ft 447 kts 305°
2026-05-05 11:53 -31.29587 132.45958 34345 ft 446 kts 305°
2026-05-05 11:53 -31.25778 132.40247 34353 ft 445 kts 306°
2026-05-05 11:54 -31.21970 132.34545 34347 ft 445 kts 306°
2026-05-05 11:54 -31.18162 132.28854 34337 ft 444 kts 305°
2026-05-05 11:55 -31.14368 132.23191 34343 ft 442 kts 305°
2026-05-05 11:55 -31.10579 132.17542 34351 ft 442 kts 305°
2026-05-05 11:56 -31.06812 132.11936 34348 ft 441 kts 305°
2026-05-05 11:56 -31.03005 132.06277 34348 ft 440 kts 305°
2026-05-05 11:57 -30.99248 132.00701 34354 ft 440 kts 305°
2026-05-05 11:57 -30.95467 131.95096 34333 ft 440 kts 305°
2026-05-05 11:58 -30.91688 131.89503 34346 ft 439 kts 305°
2026-05-05 11:58 -30.87911 131.83918 34354 ft 439 kts 305°
2026-05-05 11:59 -30.84129 131.78342 34352 ft 439 kts 305°
2026-05-05 11:59 -30.80338 131.72772 34345 ft 439 kts 305°
2026-05-05 12:00 -30.76544 131.67207 34359 ft 439 kts 305°
2026-05-05 12:00 -30.72747 131.61642 34358 ft 439 kts 305°
2026-05-05 12:01 -30.69587 131.57016 34360 ft 440 kts 305°
2026-05-05 12:01 -30.65779 131.51448 34358 ft 440 kts 305°
2026-05-05 12:02 -30.61967 131.45880 34359 ft 440 kts 306°
2026-05-05 12:02 -30.58151 131.40317 34359 ft 441 kts 306°
2026-05-05 12:03 -30.54331 131.34754 34352 ft 441 kts 306°
2026-05-05 12:03 -30.50509 131.29197 34359 ft 441 kts 306°
2026-05-05 12:04 -30.46684 131.23642 34358 ft 441 kts 306°
2026-05-05 12:04 -30.42853 131.18087 34359 ft 441 kts 306°
2026-05-05 12:05 -30.39019 131.12536 34363 ft 441 kts 306°
2026-05-05 12:05 -30.35184 131.06990 34357 ft 441 kts 306°
2026-05-05 12:06 -30.31343 131.01444 34356 ft 442 kts 306°
2026-05-05 12:06 -30.27499 130.95901 34342 ft 442 kts 306°
2026-05-05 12:07 -30.23654 130.90364 34359 ft 441 kts 306°
2026-05-05 12:07 -30.19808 130.84835 34355 ft 441 kts 306°
2026-05-05 12:08 -30.15961 130.79309 34353 ft 441 kts 306°
2026-05-05 12:08 -30.12107 130.73784 34352 ft 441 kts 306°
2026-05-05 12:09 -30.08260 130.68275 34353 ft 441 kts 306°
2026-05-05 12:09 -30.04410 130.62769 34351 ft 440 kts 306°
2026-05-05 12:10 -30.00563 130.57275 34349 ft 440 kts 306°
2026-05-05 12:10 -29.96715 130.51787 34350 ft 440 kts 306°
2026-05-05 12:11 -29.92868 130.46308 34350 ft 439 kts 306°
2026-05-05 12:11 -29.89022 130.40838 34352 ft 439 kts 306°
2026-05-05 12:12 -29.85170 130.35368 34336 ft 440 kts 306°
2026-05-05 12:12 -29.81319 130.29905 34351 ft 439 kts 307°
2026-05-05 12:13 -29.77463 130.24444 34360 ft 439 kts 307°
2026-05-05 12:13 -29.73607 130.18988 34349 ft 440 kts 307°
2026-05-05 12:14 -29.69743 130.13529 34340 ft 440 kts 307°
2026-05-05 12:14 -29.65878 130.08078 34345 ft 440 kts 307°
2026-05-05 12:15 -29.62011 130.02629 34345 ft 440 kts 307°
2026-05-05 12:15 -29.58165 129.97218 34349 ft 440 kts 307°
2026-05-05 12:16 -29.54291 129.91774 34351 ft 440 kts 307°
2026-05-05 12:16 -29.50414 129.86335 34351 ft 440 kts 307°
2026-05-05 12:17 -29.46536 129.80900 34347 ft 440 kts 307°
2026-05-05 12:17 -29.42657 129.75471 34347 ft 440 kts 307°
2026-05-05 12:18 -29.38772 129.70042 34343 ft 440 kts 307°
2026-05-05 12:18 -29.34891 129.64624 34348 ft 440 kts 307°
2026-05-05 12:19 -29.31009 129.59214 34344 ft 439 kts 307°
2026-05-05 12:19 -29.27125 129.53806 34351 ft 440 kts 307°
2026-05-05 12:20 -29.23238 129.48402 34343 ft 440 kts 307°
2026-05-05 12:20 -29.19345 129.42997 34354 ft 440 kts 307°
2026-05-05 12:21 -29.15449 129.37595 34343 ft 440 kts 307°
2026-05-05 12:21 -29.11551 129.32197 34322 ft 440 kts 307°
2026-05-05 12:22 -29.07649 129.26801 34340 ft 440 kts 307°
2026-05-05 12:22 -29.03750 129.21415 34342 ft 440 kts 307°
2026-05-05 12:23 -28.99853 129.16038 34345 ft 439 kts 307°
2026-05-05 12:23 -28.95952 129.10664 34330 ft 440 kts 307°
2026-05-05 12:24 -28.92050 129.05294 34342 ft 439 kts 307°
2026-05-05 12:24 -28.88148 128.99931 34342 ft 439 kts 307°
2026-05-05 12:25 -28.84247 128.94577 34340 ft 439 kts 307°
2026-05-05 12:25 -28.80343 128.89223 34327 ft 439 kts 307°
2026-05-05 12:26 -28.76446 128.83883 34337 ft 438 kts 307°
2026-05-05 12:26 -28.72545 128.78543 34338 ft 438 kts 307°
2026-05-05 12:27 -28.68641 128.73207 34335 ft 438 kts 307°
2026-05-05 12:27 -28.64736 128.67877 34322 ft 438 kts 307°
2026-05-05 12:28 -28.60832 128.62554 34327 ft 438 kts 307°
2026-05-05 12:28 -28.56952 128.57270 34333 ft 438 kts 307°
2026-05-05 12:29 -28.53043 128.51955 34333 ft 438 kts 307°
2026-05-05 12:29 -28.49131 128.46641 34323 ft 438 kts 307°
2026-05-05 12:30 -28.45219 128.41335 34330 ft 437 kts 307°
2026-05-05 12:30 -28.41311 128.36040 34333 ft 437 kts 307°
2026-05-05 12:31 -28.37406 128.30756 34329 ft 437 kts 307°
2026-05-05 12:31 -28.33498 128.25475 34329 ft 437 kts 307°
2026-05-05 12:32 -28.29593 128.20204 34330 ft 436 kts 307°
2026-05-05 12:32 -28.25684 128.14935 34326 ft 436 kts 307°
2026-05-05 12:33 -28.21774 128.09670 34330 ft 437 kts 307°
2026-05-05 12:33 -28.17856 128.04402 34329 ft 437 kts 307°
2026-05-05 12:34 -28.13938 127.99140 34326 ft 436 kts 307°
2026-05-05 12:34 -28.10021 127.93886 34327 ft 436 kts 307°
2026-05-05 12:35 -28.06100 127.88634 34333 ft 437 kts 307°
2026-05-05 12:35 -28.02201 127.83417 34318 ft 437 kts 307°
2026-05-05 12:36 -27.98244 127.78130 34319 ft 437 kts 307°
2026-05-05 12:36 -27.94317 127.72889 34317 ft 437 kts 307°
2026-05-05 12:37 -27.90413 127.67684 34316 ft 437 kts 307°
2026-05-05 12:37 -27.86483 127.62451 34318 ft 437 kts 307°
2026-05-05 12:38 -27.82548 127.57218 34312 ft 437 kts 307°
2026-05-05 12:38 -27.78609 127.51988 34318 ft 437 kts 307°
2026-05-05 12:39 -27.74668 127.46759 34322 ft 437 kts 307°
2026-05-05 12:39 -27.70721 127.41530 34316 ft 438 kts 307°
2026-05-05 12:40 -27.66774 127.36307 34315 ft 438 kts 307°
2026-05-05 12:40 -27.62819 127.31079 34321 ft 438 kts 307°
2026-05-05 12:41 -27.58859 127.25851 34314 ft 438 kts 307°
2026-05-05 12:41 -27.54898 127.20629 34313 ft 438 kts 307°
2026-05-05 12:42 -27.50932 127.15406 34318 ft 439 kts 307°
2026-05-05 12:42 -27.46961 127.10183 34313 ft 439 kts 307°
2026-05-05 12:43 -27.42987 127.04961 34313 ft 439 kts 308°
2026-05-05 12:43 -27.39008 126.99740 34311 ft 440 kts 308°
2026-05-05 12:44 -27.35023 126.94514 34308 ft 440 kts 308°
2026-05-05 12:44 -27.31033 126.89292 34303 ft 440 kts 308°
2026-05-05 12:45 -27.27033 126.84073 34310 ft 441 kts 308°
2026-05-05 12:45 -27.23024 126.78851 34302 ft 442 kts 308°
2026-05-05 12:46 -27.19010 126.73625 34308 ft 442 kts 308°
2026-05-05 12:46 -27.15672 126.69283 34292 ft 442 kts 308°
2026-05-05 12:47 -27.11649 126.64055 34308 ft 443 kts 308°
2026-05-05 12:47 -27.07619 126.58825 34302 ft 443 kts 308°
2026-05-05 12:48 -27.03582 126.53592 34306 ft 443 kts 308°
2026-05-05 12:48 -26.99544 126.48364 34300 ft 444 kts 308°
2026-05-05 12:49 -26.95502 126.43136 34296 ft 444 kts 308°
2026-05-05 12:49 -26.91456 126.37911 34300 ft 444 kts 308°
2026-05-05 12:50 -26.87408 126.32688 34297 ft 444 kts 308°
2026-05-05 12:50 -26.83358 126.27469 34292 ft 444 kts 308°
2026-05-05 12:51 -26.79303 126.22250 34282 ft 444 kts 308°
2026-05-05 12:51 -26.75250 126.17040 34290 ft 444 kts 308°
2026-05-05 12:52 -26.71195 126.11834 34291 ft 444 kts 308°
2026-05-05 12:52 -26.67138 126.06630 34291 ft 444 kts 308°
2026-05-05 12:53 -26.63079 126.01430 34284 ft 444 kts 308°
2026-05-05 12:53 -26.59018 125.96234 34284 ft 444 kts 308°
2026-05-05 12:54 -26.52924 125.88448 34290 ft 444 kts 309°
2026-05-05 12:55 -26.48858 125.83261 34282 ft 444 kts 309°
2026-05-05 12:55 -26.44790 125.78077 34268 ft 444 kts 309°
2026-05-05 12:56 -26.40723 125.72901 34286 ft 444 kts 309°
2026-05-05 12:56 -26.36651 125.67724 34280 ft 444 kts 309°
2026-05-05 12:57 -26.32576 125.62550 34281 ft 444 kts 309°
2026-05-05 12:57 -26.28499 125.57379 34278 ft 444 kts 309°
2026-05-05 12:58 -26.24422 125.52214 34272 ft 443 kts 309°
2026-05-05 12:58 -26.20353 125.47065 34266 ft 443 kts 309°
2026-05-05 12:59 -26.16286 125.41924 34274 ft 442 kts 309°
2026-05-05 12:59 -26.12218 125.36788 34274 ft 442 kts 309°
2026-05-05 13:00 -26.06118 125.29097 34272 ft 441 kts 309°
2026-05-05 13:01 -25.98038 125.18933 34271 ft 437 kts 309°
2026-05-05 13:01 -25.94015 125.13878 34272 ft 436 kts 309°
2026-05-05 13:02 -25.89993 125.08831 34265 ft 436 kts 309°
2026-05-05 13:02 -25.85993 125.03818 34267 ft 436 kts 309°
2026-05-05 13:03 -25.81963 124.98773 34269 ft 437 kts 309°
2026-05-05 13:03 -25.77925 124.93723 34263 ft 438 kts 309°
2026-05-05 13:04 -25.73871 124.88659 34271 ft 439 kts 309°
2026-05-05 13:04 -25.69811 124.83593 34250 ft 440 kts 309°
2026-05-05 13:05 -25.65754 124.78538 34259 ft 438 kts 309°
2026-05-05 13:05 -25.61707 124.73500 34256 ft 437 kts 309°
2026-05-05 13:06 -25.57668 124.68476 34258 ft 437 kts 309°
2026-05-05 13:06 -25.53626 124.63455 34259 ft 436 kts 309°
2026-05-05 13:07 -25.49583 124.58438 34247 ft 437 kts 309°
2026-05-05 13:07 -25.45530 124.53413 34261 ft 438 kts 309°
2026-05-05 13:08 -25.41463 124.48378 34259 ft 439 kts 309°
2026-05-05 13:08 -25.37385 124.43334 34248 ft 440 kts 309°
2026-05-05 13:09 -25.33299 124.38287 34251 ft 441 kts 309°
2026-05-05 13:09 -25.29202 124.33230 34248 ft 442 kts 309°
2026-05-05 13:10 -25.25096 124.28169 34253 ft 443 kts 309°
2026-05-05 13:10 -25.20981 124.23101 34252 ft 443 kts 309°
2026-05-05 13:11 -25.16887 124.18066 34253 ft 444 kts 309°
2026-05-05 13:11 -25.12763 124.12998 34242 ft 444 kts 309°
2026-05-05 13:12 -25.08641 124.07941 34245 ft 443 kts 309°
2026-05-05 13:12 -25.04527 124.02896 34238 ft 442 kts 309°
2026-05-05 13:13 -25.00414 123.97859 34238 ft 442 kts 309°
2026-05-05 13:13 -24.96305 123.92831 34240 ft 441 kts 309°
2026-05-05 13:14 -24.92192 123.87806 34235 ft 441 kts 308°
2026-05-05 13:14 -24.88091 123.82801 34236 ft 439 kts 308°
2026-05-05 13:15 -24.84003 123.77815 34228 ft 438 kts 308°
2026-05-05 13:15 -24.79923 123.72845 34238 ft 437 kts 308°
2026-05-05 13:16 -24.75846 123.67884 34239 ft 437 kts 308°
2026-05-05 13:16 -24.71768 123.62926 34231 ft 436 kts 307°
2026-05-05 13:17 -24.67709 123.57999 34226 ft 433 kts 307°
2026-05-05 13:17 -24.63673 123.53103 34225 ft 431 kts 307°
2026-05-05 13:18 -24.59653 123.48231 34226 ft 430 kts 307°
2026-05-05 13:18 -24.55643 123.43375 34225 ft 429 kts 307°
2026-05-05 13:19 -24.51633 123.38526 34215 ft 428 kts 307°
2026-05-05 13:19 -24.47644 123.33706 34213 ft 425 kts 307°
2026-05-05 13:20 -24.43673 123.28911 34214 ft 424 kts 307°
2026-05-05 13:20 -24.39710 123.24133 34219 ft 423 kts 307°
2026-05-05 13:21 -24.35749 123.19365 34210 ft 423 kts 307°
2026-05-05 13:21 -24.31787 123.14599 34200 ft 423 kts 307°
2026-05-05 13:22 -24.27836 123.09850 34204 ft 421 kts 307°
2026-05-05 13:22 -24.23894 123.05116 34214 ft 420 kts 307°
2026-05-05 13:23 -24.19983 123.00423 34212 ft 420 kts 307°
2026-05-05 13:23 -24.16045 122.95701 34206 ft 420 kts 307°
2026-05-05 13:24 -24.12083 122.90956 34209 ft 419 kts 307°
2026-05-05 13:24 -24.08150 122.86251 34199 ft 418 kts 306°
2026-05-05 13:25 -24.04223 122.81557 34207 ft 418 kts 306°
2026-05-05 13:25 -24.00300 122.76872 34209 ft 418 kts 306°
2026-05-05 13:26 -23.96375 122.72189 34214 ft 418 kts 306°
2026-05-05 13:26 -23.92445 122.67506 34207 ft 418 kts 306°
2026-05-05 13:27 -23.88542 122.62858 34207 ft 418 kts 306°
2026-05-05 13:27 -23.84580 122.58145 34204 ft 419 kts 307°
2026-05-05 13:28 -23.80633 122.53455 34204 ft 420 kts 307°
2026-05-05 13:28 -23.76678 122.48760 34197 ft 420 kts 307°
2026-05-05 13:29 -23.72719 122.44066 34205 ft 421 kts 307°
2026-05-05 13:29 -23.68752 122.39365 34171 ft 420 kts 306°
2026-05-05 13:30 -23.64802 122.34691 34203 ft 418 kts 306°
2026-05-05 13:30 -23.61524 122.30814 34190 ft 418 kts 306°
2026-05-05 13:31 -23.57583 122.26156 34195 ft 418 kts 306°
2026-05-05 13:31 -23.53640 122.21500 34194 ft 418 kts 306°
2026-05-05 13:32 -23.49697 122.16850 34193 ft 417 kts 306°
2026-05-05 13:32 -23.45758 122.12210 34187 ft 417 kts 306°
2026-05-05 13:33 -23.41826 122.07581 34180 ft 416 kts 306°
2026-05-05 13:33 -23.37897 122.02960 34188 ft 416 kts 306°
2026-05-05 13:34 -23.33965 121.98339 34186 ft 416 kts 306°
2026-05-05 13:34 -23.30030 121.93719 34197 ft 416 kts 306°
2026-05-05 13:35 -23.26091 121.89100 34173 ft 416 kts 306°
2026-05-05 13:35 -23.22159 121.84494 34182 ft 415 kts 306°
2026-05-05 13:36 -23.18231 121.79895 34189 ft 415 kts 306°
2026-05-05 13:36 -23.14325 121.75327 34191 ft 416 kts 306°
2026-05-05 13:37 -23.10388 121.70725 34191 ft 416 kts 306°
2026-05-05 13:37 -23.06420 121.66093 34176 ft 416 kts 306°
2026-05-05 13:38 -23.02507 121.61530 34176 ft 414 kts 305°
2026-05-05 13:38 -22.98583 121.56955 34174 ft 414 kts 305°
2026-05-05 13:39 -22.94662 121.52389 34177 ft 413 kts 305°
2026-05-05 13:39 -22.90737 121.47830 34175 ft 414 kts 305°
2026-05-05 13:40 -22.86804 121.43271 34174 ft 414 kts 305°
2026-05-05 13:40 -22.82843 121.38683 34140 ft 414 kts 305°
2026-05-05 13:41 -22.78911 121.34132 34161 ft 413 kts 305°
2026-05-05 13:41 -22.74988 121.29593 34178 ft 413 kts 305°
2026-05-05 13:42 -22.71065 121.25058 34173 ft 412 kts 305°
2026-05-05 13:42 -22.67166 121.20555 34168 ft 413 kts 305°
2026-05-05 13:43 -22.63235 121.16019 34170 ft 413 kts 305°
2026-05-05 13:43 -22.59304 121.11488 34162 ft 412 kts 304°
2026-05-05 13:44 -22.55376 121.06965 34168 ft 412 kts 304°
2026-05-05 13:44 -22.51456 121.02453 34172 ft 412 kts 304°
2026-05-05 13:45 -22.47532 120.97942 34160 ft 412 kts 304°
2026-05-05 13:45 -22.43602 120.93427 34157 ft 412 kts 304°
2026-05-05 13:46 -22.39675 120.88920 34170 ft 412 kts 304°
2026-05-05 13:46 -22.35744 120.84413 34161 ft 412 kts 304°
2026-05-05 13:47 -22.31814 120.79911 34164 ft 412 kts 304°
2026-05-05 13:47 -22.27880 120.75407 34146 ft 412 kts 304°
2026-05-05 13:48 -22.23945 120.70906 34144 ft 412 kts 304°
2026-05-05 13:48 -22.20008 120.66409 34157 ft 412 kts 304°
2026-05-05 13:49 -22.16071 120.61914 34123 ft 412 kts 304°
2026-05-05 13:49 -22.12135 120.57425 34145 ft 412 kts 304°
2026-05-05 13:50 -22.08197 120.52936 34155 ft 412 kts 304°
2026-05-05 13:50 -22.04252 120.48444 34157 ft 413 kts 304°
2026-05-05 13:51 -22.00330 120.43982 34150 ft 413 kts 304°
2026-05-05 13:51 -21.96374 120.39485 34152 ft 413 kts 304°
2026-05-05 13:52 -21.92416 120.34990 34114 ft 414 kts 305°
2026-05-05 13:52 -21.88456 120.30497 34131 ft 414 kts 305°
2026-05-05 13:53 -21.84494 120.26005 34151 ft 414 kts 305°
2026-05-05 13:53 -21.80528 120.21512 34145 ft 414 kts 305°
2026-05-05 13:54 -21.76559 120.17020 34154 ft 414 kts 305°
2026-05-05 13:54 -21.72586 120.12528 34138 ft 414 kts 305°
2026-05-05 13:55 -21.68613 120.08039 34144 ft 415 kts 305°
2026-05-05 13:55 -21.64636 120.03549 34145 ft 414 kts 305°
2026-05-05 13:56 -21.60660 119.99064 34139 ft 415 kts 305°
2026-05-05 13:56 -21.56680 119.94579 34140 ft 415 kts 305°
2026-05-05 13:57 -21.52697 119.90094 34130 ft 415 kts 305°
2026-05-05 13:57 -21.48714 119.85613 34125 ft 415 kts 305°
2026-05-05 13:58 -21.44730 119.81135 34119 ft 414 kts 305°
2026-05-05 13:58 -21.40748 119.76662 34129 ft 415 kts 305°
2026-05-05 13:59 -21.34763 119.69947 34127 ft 416 kts 305°
2026-05-05 14:00 -21.29442 119.63983 34127 ft 416 kts 305°
2026-05-05 14:00 -21.24765 119.58748 34124 ft 416 kts 305°
2026-05-05 14:01 -21.20762 119.54272 34119 ft 416 kts 305°
2026-05-05 14:01 -21.16753 119.49791 34112 ft 417 kts 305°
2026-05-05 14:02 -21.12733 119.45302 34117 ft 418 kts 305°
2026-05-05 14:02 -21.08705 119.40808 34119 ft 418 kts 305°
2026-05-05 14:03 -21.04698 119.36342 34117 ft 419 kts 305°
2026-05-05 14:03 -21.00664 119.31849 34112 ft 419 kts 305°
2026-05-05 14:04 -20.96624 119.27354 34099 ft 419 kts 306°
2026-05-05 14:04 -20.92583 119.22859 34106 ft 419 kts 306°
2026-05-05 14:05 -20.88534 119.18361 34101 ft 420 kts 306°
2026-05-05 14:05 -20.84480 119.13860 34102 ft 420 kts 306°
2026-05-05 14:06 -20.80421 119.09358 34099 ft 420 kts 306°
2026-05-05 14:06 -20.76361 119.04859 34095 ft 421 kts 306°
2026-05-05 14:07 -20.72300 119.00362 34093 ft 421 kts 306°
2026-05-05 14:07 -20.68230 118.95859 34093 ft 422 kts 306°
2026-05-05 14:08 -20.64149 118.91347 34095 ft 422 kts 306°
2026-05-05 14:08 -20.60064 118.86834 34089 ft 423 kts 306°
2026-05-05 14:09 -20.55975 118.82321 34093 ft 423 kts 306°
2026-05-05 14:09 -20.51882 118.77807 34091 ft 423 kts 306°
2026-05-05 14:10 -20.47787 118.73294 34078 ft 423 kts 306°
2026-05-05 14:10 -20.43690 118.68781 34083 ft 424 kts 306°
2026-05-05 14:11 -20.39584 118.64263 34079 ft 424 kts 306°
2026-05-05 14:11 -20.35790 118.59525 34085 ft 417 kts 299°
2026-05-05 14:12 -20.32346 118.54547 34080 ft 417 kts 299°
2026-05-05 14:12 -20.28897 118.49570 34076 ft 418 kts 299°
2026-05-05 14:13 -20.25434 118.44601 34061 ft 418 kts 299°
2026-05-05 14:13 -20.21962 118.39635 34074 ft 418 kts 299°
2026-05-05 14:14 -20.18487 118.34673 34076 ft 418 kts 299°
2026-05-05 14:14 -20.15007 118.29706 34087 ft 419 kts 299°
2026-05-05 14:15 -20.11543 118.24767 34079 ft 419 kts 299°
2026-05-05 14:15 -20.08053 118.19795 34070 ft 419 kts 299°
2026-05-05 14:16 -20.04562 118.14826 34071 ft 419 kts 299°
2026-05-05 14:16 -20.01071 118.09861 34060 ft 419 kts 300°
2026-05-05 14:17 -19.97578 118.04897 34064 ft 419 kts 300°
2026-05-05 14:17 -19.94648 118.00737 34069 ft 420 kts 300°
2026-05-05 14:18 -19.91172 117.95805 34069 ft 420 kts 300°
2026-05-05 14:18 -19.87668 117.90837 34068 ft 420 kts 300°
2026-05-05 14:19 -19.84139 117.85839 34070 ft 420 kts 300°
2026-05-05 14:19 -19.80628 117.80870 34063 ft 420 kts 300°
2026-05-05 14:20 -19.77118 117.75906 34051 ft 420 kts 300°
2026-05-05 14:20 -19.73609 117.70948 34063 ft 420 kts 300°
2026-05-05 14:21 -19.70094 117.65985 34066 ft 421 kts 300°
2026-05-05 14:21 -19.66575 117.61020 34066 ft 421 kts 300°
2026-05-05 14:22 -19.63055 117.56060 34069 ft 421 kts 300°
2026-05-05 14:22 -19.59531 117.51096 34067 ft 421 kts 300°
2026-05-05 14:23 -19.56031 117.46171 34060 ft 421 kts 300°
2026-05-05 14:23 -19.52505 117.41213 34045 ft 421 kts 300°
2026-05-05 14:24 -19.48975 117.36254 34057 ft 422 kts 300°
2026-05-05 14:24 -19.45441 117.31294 34066 ft 422 kts 300°
2026-05-05 14:25 -19.41898 117.26324 34069 ft 423 kts 300°
2026-05-05 14:25 -19.38353 117.21356 34066 ft 423 kts 300°
2026-05-05 14:26 -19.34803 117.16385 34065 ft 423 kts 300°
2026-05-05 14:26 -19.31252 117.11417 34063 ft 423 kts 300°
2026-05-05 14:27 -19.27700 117.06452 34068 ft 423 kts 300°
2026-05-05 14:27 -19.24148 117.01490 34063 ft 423 kts 300°
2026-05-05 14:28 -19.20595 116.96530 34064 ft 423 kts 300°
2026-05-05 14:28 -19.17040 116.91572 34064 ft 423 kts 300°
2026-05-05 14:29 -19.13485 116.86618 34061 ft 423 kts 300°
2026-05-05 14:29 -19.09928 116.81664 34063 ft 423 kts 300°
2026-05-05 14:30 -19.06370 116.76713 34066 ft 423 kts 300°
2026-05-05 14:30 -19.02810 116.71763 34064 ft 423 kts 300°
2026-05-05 14:31 -18.99245 116.66809 34062 ft 424 kts 300°
2026-05-05 14:31 -18.95668 116.61856 34063 ft 424 kts 300°
2026-05-05 14:32 -18.92083 116.56899 34061 ft 425 kts 300°
2026-05-05 14:32 -18.88495 116.51940 34061 ft 425 kts 300°
2026-05-05 14:33 -18.84901 116.46974 34066 ft 426 kts 300°
2026-05-05 14:33 -18.81305 116.42009 34061 ft 426 kts 300°
2026-05-05 14:34 -18.77706 116.37043 34052 ft 426 kts 300°
2026-05-05 14:34 -18.74103 116.32076 34051 ft 426 kts 300°
2026-05-05 14:35 -18.70496 116.27108 34060 ft 427 kts 300°
2026-05-05 14:35 -18.66883 116.22135 34053 ft 427 kts 300°
2026-05-05 14:36 -18.63262 116.17155 34053 ft 428 kts 300°
2026-05-05 14:36 -18.59637 116.12174 34053 ft 428 kts 300°
2026-05-05 14:37 -18.56010 116.07193 34055 ft 429 kts 300°
2026-05-05 14:37 -18.52377 116.02210 34044 ft 429 kts 300°
2026-05-05 14:38 -18.48741 115.97225 34053 ft 429 kts 300°
2026-05-05 14:38 -18.45098 115.92234 34052 ft 430 kts 300°
2026-05-05 14:39 -18.41452 115.87243 34051 ft 430 kts 300°
2026-05-05 14:39 -18.37804 115.82254 34052 ft 430 kts 300°
2026-05-05 14:40 -18.34152 115.77263 34049 ft 430 kts 300°
2026-05-05 14:40 -18.30526 115.72312 34049 ft 430 kts 300°
2026-05-05 14:41 -18.26875 115.67329 34034 ft 430 kts 300°
2026-05-05 14:41 -18.23219 115.62344 34048 ft 431 kts 300°
2026-05-05 14:42 -18.19555 115.57352 34046 ft 431 kts 301°
2026-05-05 14:42 -18.15885 115.52355 34047 ft 432 kts 301°
2026-05-05 14:43 -18.12214 115.47361 34047 ft 432 kts 301°
2026-05-05 14:43 -18.08537 115.42364 34046 ft 432 kts 301°
2026-05-05 14:44 -18.04862 115.37372 34046 ft 432 kts 301°
2026-05-05 14:44 -18.01186 115.32382 34024 ft 432 kts 301°
2026-05-05 14:45 -17.97504 115.27389 34042 ft 432 kts 301°
2026-05-05 14:45 -17.93817 115.22392 34045 ft 433 kts 301°
2026-05-05 14:46 -17.90122 115.17388 34041 ft 434 kts 301°
2026-05-05 14:46 -17.86425 115.12387 34044 ft 434 kts 301°
2026-05-05 14:47 -17.82725 115.07385 34043 ft 434 kts 301°
2026-05-05 14:47 -17.79024 115.02384 34041 ft 434 kts 301°
2026-05-05 14:48 -17.75322 114.97386 34014 ft 434 kts 301°
2026-05-05 14:48 -17.71614 114.92384 34034 ft 435 kts 301°
2026-05-05 14:49 -17.67895 114.87371 34038 ft 436 kts 301°
2026-05-05 14:49 -17.64171 114.82354 34036 ft 436 kts 301°
2026-05-05 14:50 -17.60436 114.77327 34035 ft 437 kts 301°
2026-05-05 14:50 -17.56702 114.72306 34038 ft 437 kts 301°
2026-05-05 14:51 -17.52963 114.67282 34038 ft 437 kts 301°
2026-05-05 14:51 -17.49225 114.62262 34038 ft 437 kts 301°
2026-05-05 14:52 -17.45486 114.57244 34033 ft 437 kts 301°
2026-05-05 14:52 -17.41742 114.52224 34039 ft 437 kts 301°
2026-05-05 14:53 -17.37996 114.47204 34039 ft 438 kts 301°
2026-05-05 14:53 -17.34243 114.42179 34037 ft 438 kts 301°
2026-05-05 14:54 -17.30490 114.37158 34036 ft 438 kts 301°
2026-05-05 14:54 -17.26733 114.32136 34034 ft 438 kts 301°
2026-05-05 14:55 -17.22975 114.27116 34032 ft 438 kts 301°
2026-05-05 14:55 -17.19217 114.22098 34029 ft 439 kts 301°
2026-05-05 14:56 -17.15447 114.17069 34031 ft 439 kts 301°
2026-05-05 14:56 -17.11674 114.12039 34036 ft 440 kts 301°
2026-05-05 14:57 -17.07891 114.07001 34030 ft 441 kts 301°
2026-05-05 14:57 -17.04105 114.01962 34024 ft 441 kts 301°
2026-05-05 14:58 -17.00319 113.96927 34036 ft 441 kts 301°
2026-05-05 14:58 -16.96533 113.91894 34030 ft 441 kts 301°
2026-05-05 14:59 -16.92744 113.86863 34018 ft 441 kts 302°
2026-05-05 14:59 -16.88951 113.81829 34020 ft 441 kts 302°
2026-05-05 15:00 -16.85795 113.77643 34029 ft 441 kts 302°
2026-05-05 15:00 -16.81995 113.72607 34027 ft 442 kts 302°
2026-05-05 15:01 -16.78188 113.67565 34031 ft 442 kts 302°
2026-05-05 15:01 -16.74378 113.62522 34027 ft 443 kts 302°
2026-05-05 15:02 -16.70563 113.57478 34024 ft 443 kts 302°
2026-05-05 15:02 -16.66751 113.52439 34024 ft 443 kts 302°
2026-05-05 15:03 -16.62935 113.47400 34024 ft 443 kts 302°
2026-05-05 15:03 -16.59119 113.42365 34015 ft 443 kts 302°
2026-05-05 15:04 -16.55302 113.37331 34021 ft 443 kts 302°
2026-05-05 15:04 -16.51480 113.32294 34021 ft 443 kts 302°
2026-05-05 15:05 -16.45741 113.24738 34021 ft 443 kts 302°
2026-05-05 15:06 -16.41909 113.19698 34024 ft 443 kts 302°
2026-05-05 15:06 -16.38079 113.14663 34007 ft 444 kts 302°
2026-05-05 15:07 -16.34241 113.09621 34022 ft 444 kts 302°
2026-05-05 15:07 -16.30397 113.04575 34023 ft 445 kts 302°
2026-05-05 15:08 -16.26546 112.99523 34020 ft 446 kts 302°
2026-05-05 15:08 -16.22689 112.94468 34022 ft 446 kts 302°
2026-05-05 15:09 -16.18855 112.89446 34021 ft 446 kts 302°
2026-05-05 15:09 -16.14969 112.84360 34022 ft 446 kts 302°
2026-05-05 15:10 -16.11107 112.79309 33999 ft 446 kts 302°
2026-05-05 15:10 -16.07243 112.74257 34016 ft 446 kts 302°
2026-05-05 15:11 -16.03373 112.69202 34020 ft 447 kts 302°
2026-05-05 15:11 -15.99498 112.64144 34016 ft 448 kts 302°
2026-05-05 15:12 -15.95617 112.59081 34020 ft 448 kts 302°
2026-05-05 15:12 -15.91733 112.54019 34014 ft 448 kts 302°
2026-05-05 15:13 -15.87846 112.48955 34010 ft 448 kts 302°
2026-05-05 15:13 -15.83961 112.43899 34011 ft 448 kts 302°
2026-05-05 15:14 -15.80075 112.38842 34013 ft 448 kts 303°
2026-05-05 15:14 -15.76192 112.33795 34010 ft 447 kts 303°
2026-05-05 15:15 -15.72307 112.28748 34009 ft 447 kts 303°
2026-05-05 15:15 -15.68423 112.23706 34009 ft 447 kts 303°
2026-05-05 15:16 -15.64537 112.18665 34011 ft 447 kts 303°
2026-05-05 15:16 -15.60651 112.13627 34005 ft 447 kts 303°
2026-05-05 15:17 -15.56789 112.08623 34007 ft 447 kts 303°
2026-05-05 15:17 -15.52902 112.03591 34000 ft 447 kts 303°
2026-05-05 15:18 -15.49013 111.98559 34009 ft 447 kts 303°
2026-05-05 15:18 -15.45123 111.93529 34009 ft 447 kts 303°
2026-05-05 15:19 -15.41226 111.88494 34012 ft 448 kts 303°
2026-05-05 15:19 -15.37328 111.83461 34007 ft 448 kts 303°
2026-05-05 15:20 -15.33429 111.78430 34007 ft 448 kts 303°
2026-05-05 15:20 -15.29530 111.73401 34007 ft 448 kts 303°
2026-05-05 15:21 -15.25629 111.68374 34007 ft 448 kts 303°
2026-05-05 15:21 -15.21725 111.63345 33997 ft 448 kts 303°
2026-05-05 15:22 -15.17813 111.58311 34005 ft 449 kts 303°
2026-05-05 15:22 -15.13893 111.53268 34002 ft 450 kts 303°
2026-05-05 15:23 -15.09967 111.48222 34006 ft 450 kts 303°
2026-05-05 15:23 -15.06039 111.43175 34002 ft 450 kts 303°
2026-05-05 15:24 -15.02106 111.38126 34003 ft 451 kts 303°
2026-05-05 15:24 -14.98172 111.33080 34003 ft 451 kts 303°
2026-05-05 15:25 -14.94236 111.28035 33990 ft 451 kts 304°
2026-05-05 15:25 -14.90297 111.22986 34004 ft 451 kts 304°
2026-05-05 15:26 -14.86350 111.17930 34000 ft 452 kts 304°
2026-05-05 15:26 -14.82394 111.12867 34001 ft 453 kts 304°
2026-05-05 15:27 -14.78432 111.07798 33999 ft 453 kts 304°
2026-05-05 15:27 -14.74468 111.02731 33994 ft 453 kts 304°
2026-05-05 15:28 -14.70530 110.97699 33992 ft 454 kts 304°
2026-05-05 15:28 -14.66561 110.92633 33994 ft 453 kts 304°
2026-05-05 15:29 -14.62593 110.87569 33990 ft 454 kts 304°
2026-05-05 15:29 -14.58618 110.82500 33996 ft 454 kts 304°
2026-05-05 15:30 -14.54639 110.77429 33993 ft 455 kts 304°
2026-05-05 15:30 -14.50652 110.72352 33996 ft 455 kts 304°
2026-05-05 15:31 -14.46666 110.67279 33994 ft 455 kts 304°
2026-05-05 15:31 -14.42674 110.62202 33995 ft 455 kts 304°
2026-05-05 15:32 -14.38681 110.57126 33994 ft 455 kts 304°
2026-05-05 15:32 -14.34689 110.52055 33984 ft 456 kts 305°
2026-05-05 15:33 -14.30693 110.46981 33990 ft 456 kts 305°
2026-05-05 15:33 -14.26695 110.41909 33993 ft 456 kts 305°
2026-05-05 15:34 -14.22691 110.36833 33994 ft 456 kts 305°
2026-05-05 15:34 -14.18685 110.31756 33995 ft 457 kts 305°
2026-05-05 15:35 -14.14675 110.26678 33992 ft 457 kts 305°
2026-05-05 15:35 -14.10667 110.21606 33992 ft 457 kts 305°
2026-05-05 15:36 -14.06682 110.16566 33991 ft 457 kts 305°
2026-05-05 15:36 -14.02672 110.11496 33981 ft 457 kts 305°
2026-05-05 15:37 -13.98653 110.06418 33995 ft 458 kts 305°
2026-05-05 15:37 -13.94625 110.01333 33992 ft 458 kts 305°
2026-05-05 15:38 -13.90592 109.96245 33992 ft 459 kts 305°
2026-05-05 15:38 -13.86556 109.91156 33992 ft 459 kts 305°
2026-05-05 15:39 -13.82516 109.86065 33989 ft 459 kts 305°
2026-05-05 15:39 -13.78474 109.80974 33989 ft 459 kts 305°
2026-05-05 15:40 -13.74434 109.75889 33989 ft 459 kts 306°
2026-05-05 15:40 -13.70394 109.70807 33988 ft 459 kts 306°
2026-05-05 15:41 -13.66352 109.65725 33986 ft 459 kts 306°
2026-05-05 15:41 -13.62311 109.60648 33987 ft 459 kts 306°
2026-05-05 15:42 -13.58267 109.55569 33986 ft 459 kts 306°
2026-05-05 15:42 -13.54225 109.50497 33986 ft 459 kts 306°
2026-05-05 15:43 -13.50181 109.45422 33986 ft 459 kts 306°
2026-05-05 15:43 -13.46138 109.40354 33986 ft 459 kts 306°
2026-05-05 15:44 -13.42089 109.35284 33970 ft 459 kts 306°
2026-05-05 15:44 -13.38028 109.30207 33985 ft 460 kts 306°
2026-05-05 15:45 -13.33956 109.25117 33984 ft 462 kts 306°
2026-05-05 15:45 -13.30566 109.20882 33981 ft 462 kts 306°
2026-05-05 15:46 -13.26485 109.15784 33981 ft 462 kts 306°
2026-05-05 15:46 -13.22398 109.10682 33977 ft 463 kts 306°
2026-05-05 15:47 -13.18309 109.05581 33982 ft 463 kts 306°
2026-05-05 15:47 -13.14217 109.00479 33980 ft 463 kts 306°
2026-05-05 15:48 -13.10123 108.95376 33974 ft 463 kts 306°
2026-05-05 15:48 -13.06023 108.90269 33983 ft 464 kts 306°
2026-05-05 15:49 -13.01919 108.85161 33977 ft 464 kts 306°
2026-05-05 15:49 -12.97811 108.80051 33978 ft 464 kts 306°
2026-05-05 15:50 -12.93702 108.74942 33973 ft 464 kts 306°
2026-05-05 15:50 -12.89593 108.69837 33975 ft 464 kts 306°
2026-05-05 15:51 -12.85482 108.64731 33975 ft 464 kts 306°
2026-05-05 15:51 -12.81368 108.59625 33971 ft 464 kts 306°
2026-05-05 15:52 -12.77257 108.54524 33970 ft 464 kts 307°
2026-05-05 15:52 -12.73148 108.49430 33972 ft 464 kts 307°
2026-05-05 15:53 -12.69041 108.44342 33972 ft 463 kts 307°
2026-05-05 15:53 -12.64933 108.39254 33969 ft 463 kts 307°
2026-05-05 15:54 -12.60827 108.34172 33968 ft 463 kts 307°
2026-05-05 15:54 -12.56719 108.29090 33967 ft 463 kts 307°
2026-05-05 15:55 -12.52612 108.24013 33969 ft 463 kts 307°
2026-05-05 15:55 -12.48502 108.18934 33958 ft 463 kts 307°
2026-05-05 15:56 -12.44417 108.13888 33969 ft 464 kts 307°
2026-05-05 15:56 -12.40296 108.08801 33966 ft 465 kts 307°
2026-05-05 15:57 -12.36169 108.03711 33967 ft 465 kts 307°
2026-05-05 15:57 -12.32038 107.98617 33967 ft 465 kts 307°
2026-05-05 15:58 -12.27906 107.93524 33962 ft 465 kts 307°
2026-05-05 15:58 -12.23771 107.88432 33962 ft 465 kts 307°
2026-05-05 15:59 -12.19636 107.83342 33961 ft 465 kts 307°
2026-05-05 15:59 -12.15502 107.78255 33960 ft 465 kts 307°
2026-05-05 16:00 -12.11367 107.73170 33959 ft 465 kts 307°
2026-05-05 16:00 -12.07235 107.68090 33965 ft 465 kts 307°
2026-05-05 16:01 -12.03100 107.63009 33962 ft 465 kts 307°
2026-05-05 16:01 -11.98959 107.57927 33958 ft 465 kts 308°
2026-05-05 16:02 -11.94810 107.52854 33959 ft 465 kts 308°
2026-05-05 16:02 -11.90659 107.47783 33959 ft 465 kts 308°
2026-05-05 16:03 -11.86505 107.42710 33959 ft 465 kts 308°
2026-05-05 16:03 -11.82350 107.37636 33959 ft 465 kts 308°
2026-05-05 16:04 -11.78199 107.32569 33957 ft 466 kts 308°
2026-05-05 16:04 -11.74040 107.27495 33956 ft 466 kts 308°
2026-05-05 16:05 -11.69882 107.22424 33951 ft 466 kts 308°
2026-05-05 16:05 -11.65721 107.17353 33954 ft 466 kts 308°
2026-05-05 16:06 -11.61588 107.12319 33957 ft 466 kts 308°
2026-05-05 16:06 -11.57422 107.07247 33953 ft 466 kts 308°
2026-05-05 16:07 -11.53258 107.02180 33949 ft 466 kts 308°
2026-05-05 16:07 -11.49091 106.97111 33951 ft 467 kts 308°
2026-05-05 16:08 -11.44915 106.92036 33954 ft 467 kts 308°
2026-05-05 16:08 -11.40739 106.86961 33954 ft 467 kts 308°
2026-05-05 16:09 -11.36558 106.81884 33951 ft 468 kts 308°
2026-05-05 16:09 -11.32374 106.76805 33951 ft 468 kts 308°
2026-05-05 16:10 -11.28188 106.71727 33950 ft 468 kts 308°
2026-05-05 16:10 -11.24006 106.66655 33953 ft 468 kts 308°
2026-05-05 16:11 -11.19816 106.61577 33952 ft 468 kts 308°
2026-05-05 16:12 -11.11429 106.51420 33947 ft 469 kts 308°
2026-05-05 16:13 -11.00920 106.38706 33947 ft 470 kts 308°
2026-05-05 16:13 -10.96712 106.33619 33943 ft 470 kts 308°
2026-05-05 16:14 -10.88294 106.23452 33944 ft 470 kts 308°
2026-05-05 16:15 -10.79872 106.13288 33944 ft 470 kts 308°
2026-05-05 16:16 -10.71440 106.03123 33939 ft 470 kts 308°
2026-05-05 16:17 -10.65111 105.95499 33938 ft 471 kts 308°
2026-05-05 16:18 -10.58781 105.87879 33932 ft 470 kts 308°
2026-05-05 16:19 -10.52443 105.80254 33962 ft 471 kts 308°
2026-05-05 16:19 -10.46135 105.72669 33967 ft 471 kts 308°
2026-05-05 16:20 -10.38246 105.62094 33968 ft 469 kts 303°
2026-05-05 16:22 -10.29022 105.48402 33948 ft 470 kts 303°
2026-05-05 16:23 -10.21564 105.37477 33933 ft 471 kts 303°
2026-05-05 16:23 -10.15973 105.29296 33930 ft 470 kts 303°
2026-05-05 16:24 -10.12249 105.23849 33927 ft 470 kts 303°
2026-05-05 16:25 -10.06652 105.15665 33939 ft 471 kts 303°
2026-05-05 16:25 -10.01045 105.07473 33933 ft 472 kts 303°
2026-05-05 16:26 -9.93549 104.96531 33932 ft 472 kts 303°
2026-05-05 16:27 -9.89799 104.91061 33935 ft 472 kts 303°
2026-05-05 16:27 -9.86057 104.85606 33932 ft 470 kts 303°
2026-05-05 16:28 -9.82330 104.80175 33926 ft 468 kts 303°
2026-05-05 16:28 -9.78614 104.74761 33925 ft 468 kts 304°
2026-05-05 16:29 -9.74894 104.69344 33937 ft 468 kts 303°
2026-05-05 16:29 -9.71170 104.63924 33927 ft 469 kts 304°
2026-05-05 16:30 -9.67433 104.58488 33943 ft 470 kts 304°
2026-05-05 16:30 -9.63692 104.53048 33931 ft 470 kts 303°
2026-05-05 16:31 -9.60586 104.48534 33914 ft 470 kts 304°
2026-05-05 16:31 -9.56849 104.43105 33933 ft 469 kts 304°
2026-05-05 16:32 -9.52509 104.36801 33925 ft 469 kts 304°
2026-05-05 16:32 -9.49390 104.32274 33922 ft 467 kts 304°
2026-05-05 16:33 -9.45662 104.26865 33928 ft 468 kts 304°
2026-05-05 16:33 -9.41934 104.21459 33924 ft 468 kts 304°
2026-05-05 16:34 -9.38197 104.16041 33916 ft 470 kts 304°
2026-05-05 16:34 -9.34441 104.10597 33931 ft 472 kts 304°
2026-05-05 16:35 -9.30680 104.05150 33927 ft 472 kts 304°
2026-05-05 16:35 -9.26917 103.99703 33913 ft 472 kts 304°
2026-05-05 16:36 -9.23159 103.94263 33925 ft 471 kts 304°
2026-05-05 16:36 -9.19406 103.88835 33908 ft 470 kts 304°
2026-05-05 16:37 -9.15677 103.83443 33910 ft 472 kts 305°
2026-05-05 16:37 -9.11900 103.77984 33925 ft 474 kts 305°
2026-05-05 16:38 -9.08111 103.72510 33919 ft 476 kts 305°
2026-05-05 16:38 -9.04304 103.67012 33918 ft 477 kts 305°
2026-05-05 16:39 -9.00490 103.61507 33916 ft 478 kts 305°
2026-05-05 16:39 -8.96673 103.56000 33917 ft 478 kts 305°
2026-05-05 16:40 -8.92856 103.50495 33913 ft 478 kts 305°
2026-05-05 16:40 -8.89043 103.44996 33918 ft 477 kts 306°
2026-05-05 16:41 -8.85239 103.39514 33912 ft 476 kts 306°
2026-05-05 16:41 -8.81429 103.34027 33910 ft 477 kts 305°
2026-05-05 16:42 -8.77610 103.28527 33920 ft 479 kts 306°
2026-05-05 16:42 -8.73780 103.23015 33916 ft 480 kts 305°
2026-05-05 16:43 -8.69940 103.17490 33914 ft 480 kts 305°
2026-05-05 16:43 -8.66097 103.11962 33912 ft 481 kts 305°
2026-05-05 16:44 -8.62248 103.06428 33914 ft 482 kts 305°
2026-05-05 16:44 -8.58393 103.00890 33912 ft 482 kts 305°
2026-05-05 16:45 -8.54532 102.95349 33912 ft 482 kts 305°
2026-05-05 16:45 -8.50672 102.89808 33910 ft 482 kts 305°
2026-05-05 16:46 -8.46815 102.84272 33911 ft 482 kts 306°
2026-05-05 16:46 -8.42959 102.78740 33909 ft 481 kts 306°
2026-05-05 16:47 -8.39108 102.73217 33909 ft 481 kts 306°
2026-05-05 16:47 -8.35262 102.67704 33908 ft 480 kts 305°
2026-05-05 16:48 -8.31413 102.62190 33913 ft 480 kts 305°
2026-05-05 16:48 -8.27570 102.56685 33910 ft 480 kts 306°
2026-05-05 16:49 -8.23753 102.51219 33906 ft 479 kts 306°
2026-05-05 16:49 -8.19909 102.45718 33908 ft 479 kts 306°
2026-05-05 16:50 -8.16068 102.40222 33906 ft 479 kts 306°
2026-05-05 16:50 -8.12225 102.34726 33904 ft 479 kts 306°
2026-05-05 16:51 -8.08381 102.29230 33909 ft 479 kts 306°
2026-05-05 16:51 -8.04536 102.23736 33912 ft 479 kts 306°
2026-05-05 16:52 -8.00688 102.18239 33906 ft 480 kts 306°
2026-05-05 16:52 -7.96838 102.12741 33907 ft 480 kts 306°
2026-05-05 16:53 -7.92985 102.07242 33907 ft 480 kts 306°
2026-05-05 16:53 -7.89132 102.01744 33911 ft 479 kts 306°
2026-05-05 16:54 -7.85284 101.96256 33900 ft 479 kts 305°
2026-05-05 16:54 -7.81439 101.90774 33904 ft 478 kts 305°
2026-05-05 16:55 -7.77599 101.85300 33900 ft 478 kts 306°
2026-05-05 16:55 -7.73761 101.79832 33905 ft 478 kts 306°
2026-05-05 16:56 -7.69918 101.74358 33908 ft 478 kts 306°
2026-05-05 16:56 -7.66097 101.68918 33909 ft 479 kts 306°
2026-05-05 16:57 -7.62248 101.63440 33904 ft 479 kts 305°
2026-05-05 16:57 -7.58392 101.57953 33910 ft 480 kts 305°
2026-05-05 16:58 -7.54504 101.52424 33906 ft 480 kts 305°
2026-05-05 16:58 -7.50640 101.46931 33909 ft 480 kts 305°
2026-05-05 16:59 -7.46773 101.41435 33905 ft 481 kts 305°
2026-05-05 16:59 -7.42908 101.35944 33913 ft 480 kts 305°
2026-05-05 17:00 -7.39073 101.30497 33909 ft 479 kts 305°
2026-05-05 17:00 -7.35215 101.25019 33907 ft 480 kts 305°
2026-05-05 17:01 -7.31350 101.19535 33908 ft 480 kts 305°
2026-05-05 17:01 -7.27484 101.14049 33908 ft 480 kts 305°
2026-05-05 17:02 -7.23613 101.08560 33907 ft 481 kts 305°
2026-05-05 17:02 -7.19740 101.03069 33907 ft 481 kts 305°
2026-05-05 17:03 -7.15864 100.97575 33908 ft 481 kts 305°
2026-05-05 17:03 -7.11988 100.92083 33908 ft 481 kts 305°
2026-05-05 17:04 -7.08109 100.86590 33907 ft 481 kts 305°
2026-05-05 17:04 -7.04232 100.81101 33906 ft 481 kts 305°
2026-05-05 17:05 -7.00356 100.75614 33909 ft 481 kts 305°
2026-05-05 17:05 -6.96476 100.70125 33906 ft 481 kts 305°
2026-05-05 17:06 -6.92600 100.64642 33907 ft 481 kts 305°
2026-05-05 17:06 -6.88723 100.59160 33906 ft 481 kts 305°
2026-05-05 17:07 -6.84845 100.53678 33907 ft 481 kts 305°
2026-05-05 17:07 -6.80968 100.48200 33902 ft 480 kts 305°
2026-05-05 17:08 -6.77094 100.42727 33905 ft 480 kts 305°
2026-05-05 17:08 -6.73220 100.37256 33907 ft 480 kts 305°
2026-05-05 17:09 -6.69341 100.31780 33907 ft 481 kts 305°
2026-05-05 17:09 -6.65458 100.26300 33907 ft 481 kts 305°
2026-05-05 17:10 -6.61573 100.20819 33904 ft 481 kts 305°
2026-05-05 17:10 -6.57686 100.15337 33904 ft 482 kts 305°
2026-05-05 17:11 -6.53789 100.09843 33906 ft 483 kts 305°
2026-05-05 17:11 -6.49891 100.04349 33904 ft 483 kts 305°
2026-05-05 17:12 -6.45988 99.98848 33902 ft 483 kts 305°
2026-05-05 17:12 -6.42085 99.93351 33902 ft 483 kts 305°
2026-05-05 17:13 -6.38181 99.87853 33899 ft 483 kts 305°
2026-05-05 17:13 -6.34278 99.82357 33898 ft 483 kts 306°
2026-05-05 17:14 -6.30374 99.76864 33899 ft 483 kts 306°
2026-05-05 17:14 -6.26470 99.71370 33899 ft 483 kts 306°
2026-05-05 17:15 -6.22567 99.65881 33901 ft 483 kts 306°
2026-05-05 17:15 -6.18661 99.60389 33902 ft 483 kts 306°
2026-05-05 17:16 -6.14756 99.54899 33897 ft 483 kts 306°
2026-05-05 17:16 -6.11507 99.50332 33896 ft 483 kts 306°
2026-05-05 17:17 -6.07598 99.44841 33893 ft 483 kts 306°
2026-05-05 17:17 -6.03683 99.39341 33896 ft 485 kts 306°
2026-05-05 17:18 -5.99755 99.33826 33913 ft 485 kts 306°
2026-05-05 17:18 -5.95830 99.28316 33899 ft 484 kts 306°
2026-05-05 17:19 -5.91915 99.22822 33897 ft 483 kts 306°
2026-05-05 17:19 -5.88006 99.17338 33898 ft 482 kts 306°
2026-05-05 17:20 -5.84103 99.11863 33897 ft 482 kts 306°
2026-05-05 17:20 -5.80199 99.06389 33895 ft 482 kts 306°
2026-05-05 17:21 -5.76291 99.00910 33897 ft 483 kts 306°
2026-05-05 17:22 -5.70419 98.92682 33898 ft 484 kts 306°
2026-05-05 17:22 -5.66500 98.87191 33897 ft 484 kts 306°
2026-05-05 17:23 -5.62580 98.81701 33898 ft 483 kts 306°
2026-05-05 17:23 -5.58669 98.76225 33892 ft 482 kts 306°
2026-05-05 17:24 -5.54767 98.70763 33889 ft 481 kts 306°
2026-05-05 17:24 -5.50869 98.65308 33891 ft 481 kts 306°
2026-05-05 17:25 -5.46972 98.59856 33890 ft 481 kts 306°
2026-05-05 17:25 -5.43072 98.54401 33891 ft 481 kts 306°
2026-05-05 17:26 -5.39171 98.48947 33888 ft 481 kts 306°
2026-05-05 17:26 -5.35294 98.43526 33888 ft 481 kts 306°
2026-05-05 17:27 -5.31393 98.38074 33887 ft 481 kts 306°
2026-05-05 17:27 -5.27489 98.32619 33885 ft 481 kts 306°
2026-05-05 17:28 -5.23579 98.27157 33889 ft 483 kts 306°
2026-05-05 17:28 -5.19655 98.21677 33887 ft 484 kts 306°
2026-05-05 17:29 -5.15723 98.16188 33886 ft 485 kts 306°
2026-05-05 17:29 -5.11788 98.10694 33883 ft 485 kts 306°
2026-05-05 17:30 -5.07849 98.05198 33884 ft 485 kts 306°
2026-05-05 17:30 -5.03909 97.99700 33889 ft 485 kts 306°
2026-05-05 17:31 -4.99964 97.94197 33884 ft 486 kts 306°
2026-05-05 17:31 -4.96019 97.88695 33887 ft 486 kts 306°
2026-05-05 17:32 -4.92069 97.83188 33888 ft 486 kts 306°
2026-05-05 17:32 -4.88125 97.77690 33884 ft 486 kts 306°
2026-05-05 17:33 -4.84182 97.72196 33885 ft 485 kts 306°
2026-05-05 17:33 -4.80242 97.66706 33882 ft 485 kts 306°
2026-05-05 17:34 -4.76303 97.61218 33880 ft 485 kts 306°
2026-05-05 17:34 -4.72365 97.55735 33878 ft 485 kts 306°
2026-05-05 17:35 -4.68424 97.50247 33888 ft 485 kts 306°
2026-05-05 17:35 -4.64476 97.44752 33883 ft 486 kts 306°
2026-05-05 17:36 -4.60527 97.39256 33880 ft 486 kts 306°
2026-05-05 17:36 -4.56579 97.33763 33883 ft 486 kts 306°
2026-05-05 17:37 -4.52629 97.28267 33882 ft 486 kts 306°
2026-05-05 17:37 -4.48677 97.22771 33881 ft 486 kts 306°
2026-05-05 17:38 -4.44722 97.17271 33880 ft 487 kts 306°
2026-05-05 17:38 -4.40764 97.11769 33880 ft 487 kts 306°
2026-05-05 17:39 -4.36805 97.06266 33888 ft 488 kts 306°
2026-05-05 17:39 -4.34815 97.03500 34031 ft 489 kts 306°
2026-05-05 17:39 -4.32829 97.00741 34320 ft 487 kts 306°
2026-05-05 17:39 -4.30852 96.97993 34663 ft 485 kts 306°
2026-05-05 17:40 -4.28889 96.95266 35023 ft 482 kts 306°
2026-05-05 17:40 -4.26932 96.92548 35373 ft 479 kts 306°
2026-05-05 17:40 -4.24984 96.89842 35671 ft 478 kts 306°
2026-05-05 17:40 -4.23039 96.87141 35921 ft 478 kts 306°
2026-05-05 17:41 -4.21120 96.84476 36167 ft 478 kts 306°
2026-05-05 17:41 -4.19176 96.81775 36426 ft 477 kts 306°
2026-05-05 17:41 -4.17234 96.79079 36667 ft 477 kts 306°
2026-05-05 17:41 -4.15294 96.76386 36924 ft 476 kts 306°
2026-05-05 17:42 -4.13360 96.73700 37193 ft 475 kts 307°
2026-05-05 17:42 -4.11428 96.71019 37448 ft 474 kts 307°
2026-05-05 17:42 -4.09498 96.68340 37677 ft 474 kts 307°
2026-05-05 17:42 -4.07571 96.65666 37907 ft 473 kts 307°
2026-05-05 17:43 -4.05649 96.62999 38153 ft 472 kts 307°
2026-05-05 17:43 -4.03729 96.60335 38403 ft 471 kts 307°
2026-05-05 17:43 -4.01812 96.57675 38611 ft 470 kts 307°
2026-05-05 17:43 -3.99897 96.55019 38793 ft 470 kts 307°
2026-05-05 17:44 -3.97986 96.52368 38970 ft 469 kts 307°
2026-05-05 17:44 -3.96077 96.49719 39162 ft 468 kts 307°
2026-05-05 17:44 -3.94172 96.47078 39352 ft 467 kts 307°
2026-05-05 17:44 -3.92271 96.44441 39541 ft 466 kts 307°
2026-05-05 17:45 -3.90378 96.41815 39759 ft 464 kts 307°
2026-05-05 17:45 -3.88486 96.39193 39873 ft 465 kts 307°
2026-05-05 17:45 -3.86587 96.36560 39867 ft 467 kts 307°
2026-05-05 17:46 -3.82792 96.31299 39873 ft 465 kts 307°
2026-05-05 17:46 -3.79012 96.26060 39882 ft 463 kts 307°
2026-05-05 17:47 -3.75239 96.20830 39875 ft 463 kts 307°
2026-05-05 17:47 -3.71468 96.15606 39880 ft 463 kts 307°
2026-05-05 17:48 -3.67692 96.10376 39875 ft 464 kts 307°
2026-05-05 17:48 -3.63915 96.05144 39887 ft 464 kts 307°
2026-05-05 17:49 -3.60134 95.99908 39873 ft 464 kts 307°
2026-05-05 17:49 -3.56354 95.94674 39874 ft 464 kts 307°
2026-05-05 17:50 -3.52600 95.89477 39874 ft 464 kts 307°
2026-05-05 17:50 -3.48822 95.84247 39877 ft 464 kts 307°
2026-05-05 17:51 -3.45056 95.79035 39879 ft 464 kts 307°
2026-05-05 17:51 -3.41269 95.73795 39876 ft 464 kts 307°
2026-05-05 17:52 -3.37489 95.68565 39878 ft 463 kts 307°
2026-05-05 17:52 -3.33691 95.63310 39874 ft 463 kts 307°
2026-05-05 17:53 -3.29946 95.58131 39874 ft 462 kts 307°
2026-05-05 17:53 -3.26179 95.52921 39874 ft 462 kts 307°
2026-05-05 17:54 -3.22412 95.47712 39873 ft 462 kts 307°
2026-05-05 17:54 -3.18648 95.42508 39874 ft 462 kts 307°
2026-05-05 17:55 -3.14884 95.37304 39874 ft 461 kts 307°
2026-05-05 17:55 -3.11121 95.32103 39871 ft 461 kts 307°
2026-05-05 17:56 -3.07361 95.26906 39877 ft 461 kts 307°
2026-05-05 17:56 -3.03601 95.21709 39871 ft 461 kts 307°
2026-05-05 17:57 -2.99839 95.16510 39872 ft 462 kts 307°
2026-05-05 17:57 -2.96070 95.11304 39873 ft 462 kts 307°
2026-05-05 17:58 -2.92293 95.06092 39870 ft 463 kts 307°
2026-05-05 17:58 -2.88515 95.00878 39873 ft 463 kts 307°
2026-05-05 17:59 -2.84732 94.95656 39874 ft 463 kts 307°
2026-05-05 17:59 -2.80947 94.90431 39868 ft 464 kts 307°
2026-05-05 18:00 -2.77158 94.85201 39870 ft 465 kts 307°
2026-05-05 18:00 -2.73367 94.79969 39873 ft 465 kts 307°
2026-05-05 18:01 -2.69569 94.74728 39869 ft 465 kts 307°
2026-05-05 18:01 -2.65771 94.69487 39870 ft 465 kts 307°
2026-05-05 18:02 -2.61999 94.64283 39868 ft 466 kts 307°
2026-05-05 18:02 -2.58196 94.59037 39869 ft 466 kts 307°
2026-05-05 18:03 -2.54395 94.53795 39868 ft 465 kts 307°
2026-05-05 18:03 -2.51215 94.49408 39867 ft 465 kts 307°
2026-05-05 18:04 -2.47415 94.44168 39871 ft 465 kts 307°
2026-05-05 18:04 -2.43619 94.38933 39865 ft 465 kts 307°
2026-05-05 18:05 -2.39820 94.33697 39867 ft 465 kts 307°
2026-05-05 18:05 -2.36025 94.28465 39870 ft 465 kts 307°
2026-05-05 18:06 -2.32228 94.23231 39872 ft 464 kts 307°
2026-05-05 18:06 -2.28436 94.18005 39867 ft 464 kts 306°
2026-05-05 18:07 -2.24641 94.12775 39861 ft 465 kts 307°
2026-05-05 18:07 -2.20842 94.07541 39875 ft 465 kts 307°
2026-05-05 18:08 -2.17038 94.02299 39872 ft 466 kts 306°
2026-05-05 18:08 -2.13262 93.97096 39872 ft 466 kts 306°
2026-05-05 18:09 -2.09456 93.91854 39870 ft 465 kts 306°
2026-05-05 18:09 -2.05655 93.86618 39872 ft 465 kts 306°
2026-05-05 18:10 -2.01854 93.81383 39873 ft 465 kts 306°
2026-05-05 18:10 -1.98050 93.76144 39868 ft 465 kts 306°
2026-05-05 18:11 -1.94249 93.70909 39878 ft 465 kts 306°
2026-05-05 18:11 -1.90443 93.65668 39868 ft 466 kts 307°
2026-05-05 18:12 -1.86629 93.60417 39873 ft 467 kts 307°
2026-05-05 18:12 -1.82808 93.55157 39881 ft 467 kts 307°
2026-05-05 18:13 -1.78984 93.49893 39866 ft 468 kts 307°
2026-05-05 18:13 -1.75162 93.44632 39869 ft 468 kts 307°
2026-05-05 18:14 -1.71336 93.39366 39864 ft 469 kts 307°
2026-05-05 18:14 -1.67505 93.34094 39871 ft 469 kts 307°
2026-05-05 18:15 -1.63671 93.28817 39864 ft 469 kts 307°
2026-05-05 18:15 -1.59834 93.23537 39868 ft 469 kts 307°
2026-05-05 18:16 -1.55998 93.18259 39869 ft 469 kts 307°
2026-05-05 18:16 -1.52165 93.12986 39859 ft 469 kts 307°
2026-05-05 18:17 -1.48326 93.07704 39867 ft 470 kts 307°
2026-05-05 18:17 -1.44483 93.02417 39867 ft 470 kts 307°
2026-05-05 18:18 -1.40640 92.97131 39856 ft 470 kts 307°
2026-05-05 18:18 -1.36798 92.91845 39871 ft 470 kts 307°
2026-05-05 18:19 -1.32955 92.86560 39863 ft 471 kts 307°
2026-05-05 18:19 -1.29107 92.81267 39869 ft 471 kts 307°
2026-05-05 18:20 -1.25279 92.76003 39868 ft 472 kts 307°
2026-05-05 18:20 -1.21426 92.70704 39863 ft 471 kts 307°
2026-05-05 18:21 -1.17574 92.65408 39850 ft 471 kts 307°
2026-05-05 18:21 -1.13723 92.60111 39868 ft 471 kts 306°
2026-05-05 18:22 -1.09872 92.54817 39864 ft 471 kts 306°
2026-05-05 18:22 -1.06023 92.49525 39866 ft 471 kts 306°
2026-05-05 18:23 -1.02172 92.44230 39865 ft 471 kts 306°
2026-05-05 18:23 -0.98326 92.38943 39865 ft 470 kts 306°
2026-05-05 18:24 -0.94479 92.33654 39865 ft 470 kts 306°
2026-05-05 18:24 -0.90633 92.28368 39859 ft 471 kts 307°
2026-05-05 18:25 -0.86781 92.23072 39871 ft 471 kts 307°
2026-05-05 18:25 -0.82928 92.17774 39868 ft 471 kts 306°
2026-05-05 18:26 -0.79070 92.12472 39861 ft 472 kts 307°
2026-05-05 18:26 -0.75208 92.07161 39878 ft 472 kts 306°
2026-05-05 18:27 -0.71348 92.01856 39862 ft 472 kts 306°
2026-05-05 18:27 -0.67605 91.96480 39870 ft 471 kts 303°
2026-05-05 18:28 -0.62318 91.88205 39870 ft 471 kts 303°
2026-05-05 18:28 -0.58796 91.82685 39861 ft 471 kts 303°
2026-05-05 18:29 -0.55249 91.77178 39876 ft 471 kts 303°
2026-05-05 18:29 -0.51693 91.71675 39865 ft 471 kts 303°
2026-05-05 18:30 -0.48131 91.66166 39865 ft 472 kts 303°
2026-05-05 18:30 -0.44572 91.60662 39877 ft 471 kts 303°
2026-05-05 18:31 -0.41019 91.55163 39860 ft 471 kts 303°
2026-05-05 18:31 -0.37474 91.49677 39862 ft 469 kts 303°
2026-05-05 18:32 -0.33957 91.44236 39861 ft 469 kts 303°
2026-05-05 18:32 -0.30419 91.38762 39863 ft 469 kts 303°
2026-05-05 18:33 -0.26857 91.33251 39863 ft 469 kts 303°
2026-05-05 18:33 -0.23343 91.27814 39864 ft 469 kts 303°
2026-05-05 18:34 -0.19779 91.22299 39861 ft 469 kts 303°
2026-05-05 18:34 -0.16254 91.16846 39860 ft 471 kts 303°
2026-05-05 18:35 -0.12703 91.11352 39858 ft 471 kts 303°
2026-05-05 18:35 -0.09151 91.05855 39847 ft 471 kts 303°
2026-05-05 18:36 -0.05591 91.00347 39862 ft 472 kts 303°
2026-05-05 18:36 -0.02026 90.94833 39859 ft 473 kts 303°
2026-05-05 18:37 0.01546 90.89306 39863 ft 473 kts 303°
2026-05-05 18:37 0.05112 90.83789 39846 ft 473 kts 303°
2026-05-05 18:38 0.08677 90.78274 39858 ft 472 kts 303°
2026-05-05 18:38 0.12237 90.72764 39842 ft 472 kts 303°
2026-05-05 18:39 0.15805 90.67244 39858 ft 473 kts 303°
2026-05-05 18:39 0.19397 90.61715 39862 ft 475 kts 304°
2026-05-05 18:40 0.23243 90.56344 39857 ft 476 kts 307°
2026-05-05 18:40 0.27196 90.51027 39851 ft 477 kts 307°
2026-05-05 18:41 0.31132 90.45688 39852 ft 478 kts 307°
2026-05-05 18:41 0.35045 90.40324 39855 ft 478 kts 306°
2026-05-05 18:42 0.38943 90.34961 39852 ft 476 kts 306°
2026-05-05 18:42 0.42827 90.29617 39851 ft 474 kts 306°
2026-05-05 18:43 0.46697 90.24294 39846 ft 473 kts 306°
2026-05-05 18:43 0.50559 90.18984 39843 ft 472 kts 306°
2026-05-05 18:44 0.54417 90.13676 39855 ft 472 kts 306°
2026-05-05 18:44 0.58273 90.08373 39853 ft 471 kts 306°
2026-05-05 18:45 0.62126 90.03076 39849 ft 471 kts 306°
2026-05-05 18:45 0.65979 89.97779 39843 ft 472 kts 306°
2026-05-05 18:46 0.69835 89.92473 39854 ft 473 kts 306°
2026-05-05 18:46 0.73706 89.87149 39855 ft 474 kts 306°
2026-05-05 18:47 0.77578 89.81824 39848 ft 474 kts 306°
2026-05-05 18:47 0.80799 89.77393 39857 ft 474 kts 306°
2026-05-05 18:48 0.84676 89.72062 39845 ft 474 kts 306°
2026-05-05 18:48 0.88554 89.66727 39852 ft 475 kts 306°
2026-05-05 18:49 0.92436 89.61385 39849 ft 475 kts 306°
2026-05-05 18:49 0.96323 89.56038 39852 ft 475 kts 306°
2026-05-05 18:50 1.00208 89.50693 39850 ft 475 kts 306°
2026-05-05 18:50 1.04087 89.45356 39847 ft 474 kts 306°
2026-05-05 18:51 1.07958 89.40030 39845 ft 473 kts 306°
2026-05-05 18:51 1.11813 89.34726 39844 ft 471 kts 306°
2026-05-05 18:52 1.15660 89.29432 39846 ft 470 kts 306°
2026-05-05 18:52 1.19503 89.24144 39846 ft 470 kts 306°
2026-05-05 18:53 1.23346 89.18856 39848 ft 470 kts 306°
2026-05-05 18:53 1.27187 89.13569 39846 ft 470 kts 306°
2026-05-05 18:54 1.31033 89.08276 39845 ft 471 kts 306°
2026-05-05 18:54 1.34887 89.02970 39850 ft 472 kts 306°
2026-05-05 18:55 1.38754 88.97647 39850 ft 474 kts 306°
2026-05-05 18:55 1.42628 88.92314 39848 ft 475 kts 306°
2026-05-05 18:56 1.46509 88.86970 39847 ft 475 kts 306°
2026-05-05 18:56 1.50395 88.81619 39838 ft 477 kts 306°
2026-05-05 18:57 1.54300 88.76241 39855 ft 479 kts 306°
2026-05-05 18:57 1.58218 88.70848 39850 ft 480 kts 306°
2026-05-05 18:58 1.62118 88.65478 39847 ft 481 kts 306°
2026-05-05 18:58 1.66051 88.60061 39851 ft 482 kts 306°
2026-05-05 18:59 1.69986 88.54640 39847 ft 482 kts 306°
2026-05-05 18:59 1.73923 88.49216 39848 ft 482 kts 306°
2026-05-05 19:00 1.77858 88.43794 39850 ft 482 kts 306°
2026-05-05 19:00 1.81789 88.38376 39852 ft 481 kts 306°
2026-05-05 19:01 1.85718 88.32961 39850 ft 481 kts 306°
2026-05-05 19:01 1.89639 88.27558 39851 ft 480 kts 306°
2026-05-05 19:02 1.93546 88.22171 39851 ft 478 kts 306°
2026-05-05 19:02 1.97442 88.16798 39845 ft 476 kts 306°
2026-05-05 19:03 2.01327 88.11442 39851 ft 475 kts 306°
2026-05-05 19:03 2.05207 88.06093 39845 ft 475 kts 306°
2026-05-05 19:04 2.09083 88.00748 39853 ft 475 kts 306°
2026-05-05 19:04 2.12965 87.95396 39853 ft 475 kts 306°
2026-05-05 19:05 2.16847 87.90041 39853 ft 476 kts 306°
2026-05-05 19:05 2.20731 87.84683 39852 ft 476 kts 306°
2026-05-05 19:06 2.24616 87.79324 39849 ft 476 kts 306°
2026-05-05 19:06 2.28502 87.73963 39847 ft 476 kts 306°
2026-05-05 19:07 2.32395 87.68592 39848 ft 477 kts 306°
2026-05-05 19:07 2.36294 87.63212 39854 ft 478 kts 306°
2026-05-05 19:08 2.40201 87.57820 39852 ft 479 kts 306°
2026-05-05 19:08 2.44115 87.52417 39850 ft 480 kts 306°
2026-05-05 19:09 2.48031 87.47012 39850 ft 480 kts 306°
2026-05-05 19:09 2.51949 87.41602 39848 ft 480 kts 306°
2026-05-05 19:10 2.55869 87.36190 39850 ft 480 kts 306°
2026-05-05 19:10 2.59789 87.30777 39849 ft 481 kts 306°
2026-05-05 19:11 2.63710 87.25361 39850 ft 481 kts 306°
2026-05-05 19:11 2.67633 87.19942 39850 ft 481 kts 307°
2026-05-05 19:12 2.71557 87.14521 39848 ft 481 kts 307°
2026-05-05 19:12 2.75478 87.09105 39850 ft 481 kts 307°
2026-05-05 19:13 2.79400 87.03685 39849 ft 481 kts 307°
2026-05-05 19:13 2.83321 86.98267 39844 ft 481 kts 307°
2026-05-05 19:14 2.87241 86.92849 39850 ft 481 kts 307°
2026-05-05 19:14 2.91166 86.87424 39856 ft 482 kts 307°
2026-05-05 19:15 2.95099 86.81987 39851 ft 483 kts 306°
2026-05-05 19:15 2.99037 86.76542 39854 ft 483 kts 306°
2026-05-05 19:16 3.02976 86.71094 39847 ft 484 kts 307°
2026-05-05 19:16 3.06919 86.65641 39859 ft 483 kts 307°
2026-05-05 19:17 3.10826 86.60237 39838 ft 482 kts 307°
2026-05-05 19:17 3.14752 86.54805 39841 ft 481 kts 306°
2026-05-05 19:18 3.18679 86.49372 39853 ft 482 kts 306°
2026-05-05 19:18 3.22605 86.43938 39850 ft 482 kts 306°
2026-05-05 19:19 3.26564 86.38459 39850 ft 483 kts 306°
2026-05-05 19:19 3.30472 86.33049 39849 ft 483 kts 306°
2026-05-05 19:20 3.34407 86.27600 39851 ft 483 kts 306°
2026-05-05 19:20 3.38338 86.22156 39849 ft 483 kts 306°
2026-05-05 19:21 3.42274 86.16705 39845 ft 483 kts 306°
2026-05-05 19:21 3.46220 86.11240 39847 ft 485 kts 306°
2026-05-05 19:22 3.50171 86.05765 39851 ft 486 kts 306°
2026-05-05 19:22 3.54129 86.00280 39849 ft 486 kts 306°
2026-05-05 19:23 3.58093 85.94787 39849 ft 487 kts 306°
2026-05-05 19:23 3.62059 85.89288 39845 ft 487 kts 306°
2026-05-05 19:24 3.66025 85.83789 39848 ft 487 kts 306°
2026-05-05 19:24 3.69991 85.78288 39847 ft 487 kts 306°
2026-05-05 19:25 3.73960 85.72787 39847 ft 487 kts 306°
2026-05-05 19:25 3.77929 85.67285 39849 ft 487 kts 306°
2026-05-05 19:26 3.81894 85.61786 39850 ft 487 kts 306°
2026-05-05 19:26 3.85847 85.56300 39846 ft 485 kts 306°
2026-05-05 19:27 3.89792 85.50825 39843 ft 484 kts 306°
2026-05-05 19:27 3.93724 85.45367 39845 ft 483 kts 306°
2026-05-05 19:28 3.97653 85.39913 39837 ft 483 kts 306°
2026-05-05 19:28 4.01585 85.34453 39846 ft 483 kts 306°
2026-05-05 19:29 4.05523 85.28984 39848 ft 484 kts 306°
2026-05-05 19:29 4.09465 85.23507 39847 ft 485 kts 306°
2026-05-05 19:30 4.13412 85.18024 39848 ft 486 kts 306°
2026-05-05 19:30 4.17363 85.12533 39847 ft 486 kts 306°
2026-05-05 19:31 4.21316 85.07039 39846 ft 486 kts 306°
2026-05-05 19:31 4.25270 85.01542 39844 ft 487 kts 306°
2026-05-05 19:32 4.28561 84.96967 39850 ft 487 kts 306°
2026-05-05 19:32 4.32521 84.91459 39847 ft 487 kts 306°
2026-05-05 19:33 4.36484 84.85947 39848 ft 487 kts 306°
2026-05-05 19:33 4.40444 84.80437 39845 ft 487 kts 306°
2026-05-05 19:34 4.44407 84.74922 39844 ft 488 kts 306°
2026-05-05 19:35 4.50350 84.66650 39844 ft 488 kts 306°
2026-05-05 19:35 4.54312 84.61132 39844 ft 488 kts 306°
2026-05-05 19:36 4.58275 84.55613 39851 ft 487 kts 307°
2026-05-05 19:36 4.62205 84.50139 39842 ft 487 kts 307°
2026-05-05 19:37 4.66161 84.44628 39845 ft 487 kts 307°
2026-05-05 19:37 4.70110 84.39124 39842 ft 486 kts 307°
2026-05-05 19:38 4.74059 84.33621 39840 ft 486 kts 307°
2026-05-05 19:38 4.78006 84.28118 39845 ft 486 kts 307°
2026-05-05 19:39 4.81950 84.22618 39844 ft 486 kts 307°
2026-05-05 19:39 4.85894 84.17117 39842 ft 486 kts 307°
2026-05-05 19:40 4.89839 84.11613 39841 ft 486 kts 307°
2026-05-05 19:40 4.93782 84.06110 39841 ft 486 kts 307°
2026-05-05 19:41 4.97726 84.00605 39841 ft 486 kts 307°
2026-05-05 19:41 5.01662 83.95110 39838 ft 485 kts 307°
2026-05-05 19:42 5.05600 83.89611 39839 ft 485 kts 306°
2026-05-05 19:42 5.09531 83.84119 39837 ft 484 kts 306°
2026-05-05 19:43 5.13459 83.78631 39838 ft 484 kts 306°
2026-05-05 19:43 5.17382 83.73149 39835 ft 484 kts 306°
2026-05-05 19:44 5.21303 83.67665 39837 ft 483 kts 306°
2026-05-05 19:44 5.25222 83.62186 39834 ft 483 kts 306°
2026-05-05 19:45 5.29144 83.56705 39834 ft 483 kts 306°
2026-05-05 19:45 5.33033 83.51267 39841 ft 482 kts 306°
2026-05-05 19:46 5.36964 83.45768 39833 ft 481 kts 306°
2026-05-05 19:46 5.40835 83.40351 39835 ft 480 kts 306°
2026-05-05 19:47 5.44727 83.34901 39832 ft 480 kts 306°
2026-05-05 19:47 5.48613 83.29461 39833 ft 480 kts 306°
2026-05-05 19:48 5.52498 83.24018 39834 ft 480 kts 306°
2026-05-05 19:48 5.56385 83.18573 39833 ft 480 kts 306°
2026-05-05 19:49 5.60267 83.13133 39832 ft 480 kts 306°
2026-05-05 19:49 5.64159 83.07679 39831 ft 480 kts 306°
2026-05-05 19:50 5.68046 83.02229 39833 ft 480 kts 307°
2026-05-05 19:50 5.71926 82.96786 39833 ft 479 kts 307°
2026-05-05 19:51 5.75805 82.91345 39832 ft 478 kts 307°
2026-05-05 19:51 5.79677 82.85912 39832 ft 478 kts 307°
2026-05-05 19:52 5.83544 82.80485 39834 ft 478 kts 306°
2026-05-05 19:52 5.87408 82.75060 39833 ft 478 kts 307°
2026-05-05 19:53 5.91275 82.69629 39834 ft 478 kts 307°
2026-05-05 19:53 5.95144 82.64195 39833 ft 478 kts 307°
2026-05-05 19:54 5.99009 82.58763 39831 ft 478 kts 307°
2026-05-05 19:54 6.02879 82.53324 39829 ft 478 kts 307°
2026-05-05 19:55 6.06742 82.47892 39840 ft 477 kts 307°
2026-05-05 19:55 6.10601 82.42465 39827 ft 477 kts 307°
2026-05-05 19:56 6.14455 82.37044 39830 ft 477 kts 307°
2026-05-05 19:56 6.18311 82.31617 39832 ft 477 kts 307°
2026-05-05 19:57 6.22165 82.26192 39836 ft 477 kts 307°
2026-05-05 19:57 6.26023 82.20758 39836 ft 478 kts 307°
2026-05-05 19:58 6.29887 82.15317 39836 ft 478 kts 307°
2026-05-05 19:58 6.33749 82.09879 39835 ft 478 kts 307°
2026-05-05 19:59 6.37612 82.04438 39836 ft 478 kts 307°
2026-05-05 19:59 6.41475 81.98992 39835 ft 478 kts 307°
2026-05-05 20:00 6.45339 81.93544 39833 ft 478 kts 307°
2026-05-05 20:00 6.49192 81.88109 39838 ft 477 kts 307°
2026-05-05 20:01 6.53044 81.82674 39840 ft 477 kts 307°
2026-05-05 20:01 6.56896 81.77238 39838 ft 477 kts 307°
2026-05-05 20:02 6.60744 81.71805 39839 ft 477 kts 307°
2026-05-05 20:02 6.64592 81.66371 39838 ft 477 kts 307°
2026-05-05 20:03 6.68440 81.60935 39839 ft 477 kts 307°
2026-05-05 20:03 6.72290 81.55493 39842 ft 477 kts 307°
2026-05-05 20:04 6.76139 81.50052 39845 ft 478 kts 307°
2026-05-05 20:04 6.79992 81.44606 39854 ft 477 kts 306°
2026-05-05 20:05 6.83841 81.39164 39851 ft 477 kts 306°
2026-05-05 20:05 6.87689 81.33722 39860 ft 477 kts 306°
2026-05-05 20:06 6.91534 81.28279 39857 ft 477 kts 306°
2026-05-05 20:06 6.95379 81.22836 39862 ft 477 kts 306°
2026-05-05 20:07 6.99226 81.17387 39870 ft 477 kts 306°
2026-05-05 20:07 7.03071 81.11940 39875 ft 477 kts 306°
2026-05-05 20:08 7.06914 81.06493 39857 ft 477 kts 306°
2026-05-05 20:08 7.10759 81.01042 39887 ft 477 kts 306°
2026-05-05 20:09 7.14576 80.95628 39894 ft 477 kts 306°
2026-05-05 20:09 7.18412 80.90187 39904 ft 476 kts 306°
2026-05-05 20:10 7.22244 80.84747 39883 ft 476 kts 305°
2026-05-05 20:10 7.26072 80.79312 39881 ft 476 kts 305°
2026-05-05 20:11 7.29899 80.73881 39891 ft 475 kts 305°
2026-05-05 20:11 7.33725 80.68448 39886 ft 475 kts 305°
2026-05-05 20:12 7.37549 80.63015 39875 ft 475 kts 305°
2026-05-05 20:12 7.41371 80.57582 39873 ft 475 kts 305°
2026-05-05 20:13 7.45196 80.52143 39875 ft 476 kts 306°
2026-05-05 20:13 7.49019 80.46704 39869 ft 476 kts 306°
2026-05-05 20:14 7.52841 80.41265 39859 ft 475 kts 306°
2026-05-05 20:14 7.56662 80.35826 39855 ft 475 kts 306°
2026-05-05 20:15 7.60478 80.30390 39853 ft 475 kts 306°
2026-05-05 20:15 7.64293 80.24955 39851 ft 475 kts 306°
2026-05-05 20:16 7.68110 80.19518 39854 ft 475 kts 306°
2026-05-05 20:16 7.71924 80.14083 39846 ft 475 kts 306°
2026-05-05 20:17 7.75095 80.09564 39844 ft 475 kts 306°
2026-05-05 20:17 7.78907 80.04126 39846 ft 475 kts 306°
2026-05-05 20:18 7.82719 79.98686 39837 ft 475 kts 306°
2026-05-05 20:18 7.86534 79.93240 39838 ft 475 kts 306°
2026-05-05 20:19 7.90347 79.87795 39836 ft 475 kts 306°
2026-05-05 20:19 7.94157 79.82352 39831 ft 475 kts 306°
2026-05-05 20:20 7.97968 79.76906 39829 ft 475 kts 305°
2026-05-05 20:20 8.01782 79.71453 39831 ft 475 kts 305°
2026-05-05 20:21 8.05595 79.65998 39823 ft 476 kts 305°
2026-05-05 20:21 8.09413 79.60535 39831 ft 476 kts 305°
2026-05-05 20:22 8.13230 79.55074 39822 ft 476 kts 305°
2026-05-05 20:22 8.17051 79.49607 39816 ft 477 kts 305°
2026-05-05 20:23 8.20870 79.44138 39821 ft 477 kts 305°
2026-05-05 20:23 8.24691 79.38662 39813 ft 477 kts 306°
2026-05-05 20:24 8.28519 79.33175 39819 ft 478 kts 306°
2026-05-05 20:24 8.32349 79.27683 39815 ft 478 kts 305°
2026-05-05 20:25 8.36171 79.22199 39811 ft 478 kts 306°
2026-05-05 20:25 8.39975 79.16739 39824 ft 478 kts 305°
2026-05-05 20:26 8.43801 79.11247 39818 ft 478 kts 305°
2026-05-05 20:26 8.47645 79.05725 39809 ft 477 kts 305°
2026-05-05 20:27 8.51456 79.00246 39811 ft 476 kts 306°
2026-05-05 20:27 8.55387 78.94925 39802 ft 475 kts 314°
2026-05-05 20:28 8.60496 78.90701 39825 ft 471 kts 328°
2026-05-05 20:28 8.66006 78.87110 39816 ft 471 kts 328°
2026-05-05 20:29 8.71514 78.83527 39811 ft 471 kts 328°
2026-05-05 20:29 8.76959 78.79932 39813 ft 470 kts 328°
2026-05-05 20:30 8.82425 78.76294 39818 ft 470 kts 328°
2026-05-05 20:30 8.87886 78.72652 39819 ft 470 kts 328°
2026-05-05 20:31 8.93387 78.68985 39826 ft 470 kts 328°
2026-05-05 20:31 8.98805 78.65373 39830 ft 469 kts 327°
2026-05-05 20:32 9.04239 78.61749 39822 ft 467 kts 327°
2026-05-05 20:32 9.09653 78.58138 39831 ft 466 kts 327°
2026-05-05 20:33 9.15056 78.54532 39836 ft 465 kts 327°
2026-05-05 20:33 9.20456 78.50927 39841 ft 464 kts 327°
2026-05-05 20:34 9.25848 78.47326 39835 ft 464 kts 327°
2026-05-05 20:34 9.31243 78.43721 39834 ft 465 kts 327°
2026-05-05 20:35 9.36634 78.40118 39843 ft 465 kts 327°
2026-05-05 20:35 9.42035 78.36507 39843 ft 465 kts 327°
2026-05-05 20:36 9.47437 78.32894 39844 ft 466 kts 327°
2026-05-05 20:36 9.52849 78.29272 39856 ft 467 kts 327°
2026-05-05 20:37 9.58266 78.25646 39843 ft 467 kts 327°
2026-05-05 20:37 9.63678 78.22021 39841 ft 466 kts 327°
2026-05-05 20:38 9.69088 78.18397 39835 ft 466 kts 327°
2026-05-05 20:38 9.74504 78.14767 39830 ft 466 kts 327°
2026-05-05 20:39 9.79914 78.11139 39828 ft 467 kts 327°
2026-05-05 20:39 9.84846 78.06928 39875 ft 466 kts 307°
2026-05-05 20:40 9.88655 78.01596 39870 ft 467 kts 306°
2026-05-05 20:40 9.92487 77.96269 39862 ft 468 kts 307°
2026-05-05 20:40 9.94443 77.93608 39439 ft 475 kts 307°
2026-05-05 20:41 9.96412 77.90943 38946 ft 470 kts 307°
2026-05-05 20:41 9.98284 77.88223 38107 ft 471 kts 297°
2026-05-05 20:41 9.99442 77.85128 37372 ft 469 kts 281°
2026-05-05 20:41 9.99909 77.81867 36682 ft 467 kts 276°
2026-05-05 20:42 10.00257 77.78590 35931 ft 467 kts 275°
2026-05-05 20:42 10.00578 77.75308 35094 ft 469 kts 275°
2026-05-05 20:42 10.00906 77.72000 34210 ft 473 kts 275°
2026-05-05 20:42 10.01251 77.68669 33195 ft 477 kts 275°
2026-05-05 20:43 10.01614 77.65316 32200 ft 479 kts 275°
2026-05-05 20:43 10.01989 77.61945 31143 ft 482 kts 276°
2026-05-05 20:43 10.02373 77.58557 30040 ft 485 kts 276°
2026-05-05 20:43 10.02761 77.55152 28702 ft 487 kts 276°
2026-05-05 20:44 10.03151 77.51740 27428 ft 487 kts 276°
2026-05-05 20:44 10.03540 77.48323 26188 ft 486 kts 276°
2026-05-05 20:44 10.03926 77.44922 25057 ft 484 kts 276°
2026-05-05 20:44 10.04308 77.41545 24014 ft 480 kts 276°
2026-05-05 20:45 10.05058 77.34911 22000 ft 463 kts 276°
2026-05-05 20:45 10.05420 77.31694 20993 ft 448 kts 276°
2026-05-05 20:45 10.05768 77.28608 19904 ft 432 kts 276°
2026-05-05 20:46 10.06102 77.25639 18961 ft 416 kts 276°
2026-05-05 20:46 10.06426 77.22761 18027 ft 406 kts 276°
2026-05-05 20:46 10.06748 77.19898 17072 ft 411 kts 276°
2026-05-05 20:46 10.07073 77.16998 16134 ft 416 kts 277°
2026-05-05 20:47 10.07400 77.14078 15204 ft 417 kts 277°
2026-05-05 20:47 10.07726 77.11172 14279 ft 412 kts 277°
2026-05-05 20:47 10.08049 77.08291 13293 ft 409 kts 277°
2026-05-05 20:47 10.08394 77.05486 12683 ft 388 kts 279°
2026-05-05 20:48 10.08823 77.02894 12477 ft 357 kts 284°
2026-05-05 20:48 10.09482 77.00563 12306 ft 331 kts 290°
2026-05-05 20:48 10.10159 76.98439 12148 ft 310 kts 289°
2026-05-05 20:48 10.10806 76.96401 12029 ft 290 kts 290°
2026-05-05 20:49 10.11410 76.94497 11746 ft 280 kts 289°
2026-05-05 20:49 10.11998 76.92650 11193 ft 279 kts 289°
2026-05-05 20:49 10.12599 76.90768 10656 ft 281 kts 290°
2026-05-05 20:49 10.13200 76.88881 10284 ft 280 kts 289°
2026-05-05 20:50 10.13797 76.87005 9920 ft 274 kts 290°
2026-05-05 20:50 10.14184 76.85787 9540 ft 274 kts 290°
2026-05-05 20:50 10.14959 76.83349 8908 ft 269 kts 290°
2026-05-05 20:50 10.15523 76.81574 8412 ft 267 kts 290°
2026-05-05 20:51 10.16091 76.79782 7932 ft 266 kts 289°
2026-05-05 20:51 10.16348 76.77930 7432 ft 266 kts 271°
2026-05-05 20:51 10.16292 76.76038 6966 ft 264 kts 269°
2026-05-05 20:51 10.16216 76.74206 6508 ft 262 kts 269°
2026-05-05 20:52 10.16144 76.72364 6041 ft 260 kts 269°
2026-05-05 20:52 10.16080 76.70513 5566 ft 257 kts 269°
2026-05-05 20:52 10.16024 76.68740 5132 ft 253 kts 269°
2026-05-05 20:52 10.15973 76.66968 4676 ft 250 kts 270°
2026-05-05 20:53 10.15978 76.65213 4392 ft 247 kts 271°
2026-05-05 20:53 10.15964 76.63467 4067 ft 247 kts 270°
2026-05-05 20:53 10.15912 76.61738 3742 ft 241 kts 269°
2026-05-05 20:53 10.15849 76.60076 3460 ft 231 kts 269°
2026-05-05 20:54 10.15788 76.58479 3169 ft 223 kts 269°
2026-05-05 20:54 10.15731 76.56939 2889 ft 214 kts 269°
2026-05-05 20:54 10.15677 76.55461 2605 ft 205 kts 269°
2026-05-05 20:54 10.15624 76.54050 2344 ft 193 kts 269°
2026-05-05 20:55 10.15576 76.52749 2104 ft 177 kts 269°
2026-05-05 20:55 10.15532 76.51549 1878 ft 163 kts 269°
2026-05-05 20:55 10.15492 76.50442 1678 ft 152 kts 268°
2026-05-05 20:55 10.15454 76.49413 1542 ft 143 kts 269°
2026-05-05 20:56 10.15417 76.48396 1310 ft 140 kts 269°
2026-05-05 20:56 10.15381 76.47430 1125 ft 133 kts 269°
2026-05-05 20:56 10.15347 76.46489 968 ft 135 kts 269°
2026-05-05 20:56 10.15312 76.45530 810 ft 137 kts 268°
2026-05-05 20:57 10.15277 76.44567 637 ft 137 kts 268°
2026-05-05 20:57 10.15241 76.43596 455 ft 138 kts 267°
2026-05-05 20:57 10.15202 76.42622 304 ft 138 kts 267°
2026-05-05 20:57 10.15166 76.41636 122 ft 140 kts 268°
2026-05-05 20:58 10.15130 76.40694 31 ft 123 kts 268°
2026-05-05 20:58 10.15107 76.39951 29 ft 87 kts 268°
2026-05-05 20:58 10.15091 76.39460 28 ft 52 kts 268°
2026-05-05 20:58 10.15082 76.39220 30 ft 20 kts 268°
2026-05-05 20:59 10.15174 76.39154 31 ft 15 kts
2026-05-05 20:59 10.15200 76.39154 26 ft 0 kts 359°
2026-05-05 20:59 10.15201 76.39154 26 ft 0 kts 359°
2026-05-05 20:59 10.15202 76.39154 25 ft 0 kts 359°
2026-05-05 21:00 10.15223 76.39156 24 ft 14 kts 11°
2026-05-05 21:00 10.15263 76.39242 23 ft 15 kts 85°
2026-05-05 21:01 10.15268 76.39346 23 ft 14 kts 89°
2026-05-05 21:01 10.15267 76.39416 23 ft 17 kts 89°
2026-05-05 21:01 10.15327 76.39515 23 ft 18 kts
2026-05-05 21:01 10.15356 76.39538 22 ft 0 kts 60°
2026-05-05 21:02 10.15378 76.39550 22 ft 10 kts 23°
2026-05-05 21:02 10.15434 76.39551 22 ft 3 kts 354°
2026-05-05 21:02 10.15445 76.39551 23 ft 1 kts
2026-05-05 21:03 10.15449 76.39551 24 ft 1 kts
2026-05-05 21:03 10.15452 76.39552 24 ft 1 kts
2026-05-05 21:03 10.15455 76.39552 23 ft 0 kts